Time,TemperatureF,DewpointF,PressureIn,WindDirection,WindDirectionDegrees,WindSpeedMPH,WindSpeedGustMPH,Humidity,HourlyPrecipIn,Conditions,Clouds,dailyrainin,SoftwareType,DateUTC
2014-01-19 00:00:00,36.7,29.2,30.00,North,0,0.0,0.0,74,0.00,,---,0.00,VWS V14.00,2014-01-19 08:00:00,
2014-01-19 00:03:00,36.5,29.3,30.00,North,0,0.0,0.0,75,0.00,,---,0.00,VWS V14.00,2014-01-19 08:03:00,
2014-01-19 00:04:00,36.5,29.7,30.00,North,0,0.0,0.0,76,0.00,,---,0.00,VWS V14.00,2014-01-19 08:04:00,
2014-01-19 00:07:00,36.5,29.7,30.00,North,0,0.0,0.0,76,0.00,,---,0.00,VWS V14.00,2014-01-19 08:07:00,
2014-01-19 00:09:00,36.7,29.8,30.00,North,0,0.0,0.0,76,0.00,,---,0.00,VWS V14.00,2014-01-19 08:09:00,
2014-01-19 00:13:00,36.7,29.8,30.00,North,0,0.0,0.0,76,0.00,,---,0.00,VWS V14.00,2014-01-19 08:13:00,
2014-01-19 00:15:00,36.7,29.8,30.00,North,0,0.0,0.0,76,0.00,,---,0.00,VWS V14.00,2014-01-19 08:15:00,
2014-01-19 00:18:00,36.7,29.5,30.00,North,0,0.0,0.0,75,0.00,,---,0.00,VWS V14.00,2014-01-19 08:18:00,
2014-01-19 00:20:00,36.9,29.7,30.00,North,0,0.0,0.0,75,0.00,,---,0.00,VWS V14.00,2014-01-19 08:20:00,
2014-01-19 00:21:00,37.0,29.9,30.00,North,0,0.0,0.0,75,0.00,,---,0.00,VWS V14.00,2014-01-19 08:21:00,
2014-01-19 00:22:00,37.0,29.5,30.00,North,0,0.0,0.0,74,0.00,,---,0.00,VWS V14.00,2014-01-19 08:22:00,
2014-01-19 00:23:00,37.0,29.5,30.00,North,0,0.0,0.0,74,0.00,,---,0.00,VWS V14.00,2014-01-19 08:23:00,
2014-01-19 00:26:00,37.2,29.4,30.00,North,0,0.0,0.0,73,0.00,,---,0.00,VWS V14.00,2014-01-19 08:26:00,
2014-01-19 00:29:00,37.0,28.9,30.00,North,0,0.0,0.0,72,0.00,,---,0.00,VWS V14.00,2014-01-19 08:29:00,
2014-01-19 00:30:00,37.0,28.9,30.00,North,0,0.0,0.0,72,0.00,,---,0.00,VWS V14.00,2014-01-19 08:30:00,
2014-01-19 00:31:00,37.0,28.9,30.00,North,0,0.0,0.0,72,0.00,,---,0.00,VWS V14.00,2014-01-19 08:31:00,
2014-01-19 00:32:00,37.0,28.5,30.00,North,0,0.0,0.0,71,0.00,,---,0.00,VWS V14.00,2014-01-19 08:32:00,
2014-01-19 00:36:00,37.0,28.5,30.00,North,0,0.0,0.0,71,0.00,,---,0.00,VWS V14.00,2014-01-19 08:36:00,
2014-01-19 00:37:00,36.9,28.0,30.00,North,0,0.0,0.0,70,0.00,,---,0.00,VWS V14.00,2014-01-19 08:37:00,
2014-01-19 00:38:00,36.9,28.0,30.00,North,0,0.0,0.0,70,0.00,,---,0.00,VWS V14.00,2014-01-19 08:38:00,
2014-01-19 00:40:00,36.9,28.0,30.00,North,0,0.0,0.0,70,0.00,,---,0.00,VWS V14.00,2014-01-19 08:40:00,
2014-01-19 00:42:00,36.9,27.7,30.00,North,0,0.0,0.0,69,0.00,,---,0.00,VWS V14.00,2014-01-19 08:42:00,
2014-01-19 00:43:00,36.7,27.5,30.00,North,0,0.0,0.0,69,0.00,,---,0.00,VWS V14.00,2014-01-19 08:43:00,
2014-01-19 00:45:00,36.7,27.5,30.00,North,0,0.0,0.0,69,0.00,,---,0.00,VWS V14.00,2014-01-19 08:45:00,
2014-01-19 00:46:00,36.7,27.5,30.00,North,0,0.0,0.0,69,0.00,,---,0.00,VWS V14.00,2014-01-19 08:46:00,
2014-01-19 00:47:00,36.5,27.3,30.00,North,0,0.0,0.0,69,0.00,,---,0.00,VWS V14.00,2014-01-19 08:47:00,
2014-01-19 00:48:00,36.5,27.3,30.00,North,0,0.0,0.0,69,0.00,,---,0.00,VWS V14.00,2014-01-19 08:48:00,
2014-01-19 00:50:00,36.5,27.3,30.00,North,0,0.0,0.0,69,0.00,,---,0.00,VWS V14.00,2014-01-19 08:50:00,
2014-01-19 00:53:00,36.3,26.8,30.00,North,0,0.0,0.0,68,0.00,,---,0.00,VWS V14.00,2014-01-19 08:53:00,
2014-01-19 00:54:00,36.3,26.8,30.00,North,0,0.0,0.0,68,0.00,,---,0.00,VWS V14.00,2014-01-19 08:54:00,
2014-01-19 00:55:00,36.3,26.8,30.00,North,0,0.0,0.0,68,0.00,,---,0.00,VWS V14.00,2014-01-19 08:55:00,
2014-01-19 00:57:00,36.3,26.8,30.00,North,0,0.0,0.0,68,0.00,,---,0.00,VWS V14.00,2014-01-19 08:57:00,
2014-01-19 00:58:00,36.1,26.6,30.00,North,0,0.0,0.0,68,0.00,,---,0.00,VWS V14.00,2014-01-19 08:58:00,
2014-01-19 01:00:00,36.1,26.6,30.00,North,0,0.0,0.0,68,0.00,,---,0.00,VWS V14.00,2014-01-19 09:00:00,
2014-01-19 01:02:00,36.1,26.3,30.00,North,0,0.0,0.0,67,0.00,,---,0.00,VWS V14.00,2014-01-19 09:02:00,
2014-01-19 01:03:00,36.1,26.3,30.00,North,0,0.0,0.0,67,0.00,,---,0.00,VWS V14.00,2014-01-19 09:03:00,
2014-01-19 01:06:00,36.0,26.4,30.00,North,0,0.0,0.0,68,0.00,,---,0.00,VWS V14.00,2014-01-19 09:06:00,
2014-01-19 01:08:00,35.8,25.9,30.00,North,0,0.0,0.0,67,0.00,,---,0.00,VWS V14.00,2014-01-19 09:08:00,
2014-01-19 01:09:00,35.8,25.9,30.00,North,0,0.0,0.0,67,0.00,,---,0.00,VWS V14.00,2014-01-19 09:09:00,
2014-01-19 01:11:00,35.8,25.9,30.00,North,0,0.0,0.0,67,0.00,,---,0.00,VWS V14.00,2014-01-19 09:11:00,
2014-01-19 01:12:00,35.8,25.9,30.00,North,0,0.0,0.0,67,0.00,,---,0.00,VWS V14.00,2014-01-19 09:12:00,
2014-01-19 01:15:00,35.8,25.9,30.00,North,0,0.0,0.0,67,0.00,,---,0.00,VWS V14.00,2014-01-19 09:15:00,
2014-01-19 01:17:00,35.8,25.9,30.00,North,0,0.0,0.0,67,0.00,,---,0.00,VWS V14.00,2014-01-19 09:17:00,
2014-01-19 01:18:00,35.8,25.9,30.00,North,0,0.0,0.0,67,0.00,,---,0.00,VWS V14.00,2014-01-19 09:18:00,
2014-01-19 01:19:00,35.6,25.7,30.00,North,0,0.0,0.0,67,0.00,,---,0.00,VWS V14.00,2014-01-19 09:19:00,
2014-01-19 01:22:00,35.4,25.9,30.00,North,0,0.0,0.0,68,0.00,,---,0.00,VWS V14.00,2014-01-19 09:22:00,
2014-01-19 01:23:00,35.4,25.9,30.00,North,0,0.0,0.0,68,0.00,,---,0.00,VWS V14.00,2014-01-19 09:23:00,
2014-01-19 01:25:00,35.4,25.9,30.00,North,0,0.0,0.0,68,0.00,,---,0.00,VWS V14.00,2014-01-19 09:25:00,
2014-01-19 01:29:00,35.2,26.1,30.00,North,0,0.0,0.0,69,0.00,,---,0.00,VWS V14.00,2014-01-19 09:29:00,
2014-01-19 01:31:00,35.2,26.1,30.00,North,0,0.0,0.0,69,0.00,,---,0.00,VWS V14.00,2014-01-19 09:31:00,
2014-01-19 01:32:00,35.1,25.9,30.00,North,0,0.0,0.0,69,0.00,,---,0.00,VWS V14.00,2014-01-19 09:32:00,
2014-01-19 01:34:00,35.1,25.9,30.00,North,0,0.0,0.0,69,0.00,,---,0.00,VWS V14.00,2014-01-19 09:34:00,
2014-01-19 01:36:00,35.1,26.3,30.00,North,0,0.0,0.0,70,0.00,,---,0.00,VWS V14.00,2014-01-19 09:36:00,
2014-01-19 01:37:00,35.1,26.3,30.00,North,0,0.0,0.0,70,0.00,,---,0.00,VWS V14.00,2014-01-19 09:37:00,
2014-01-19 01:38:00,35.1,26.3,30.00,North,0,0.0,0.0,70,0.00,,---,0.00,VWS V14.00,2014-01-19 09:38:00,
2014-01-19 01:39:00,35.1,26.3,30.00,North,0,0.0,0.0,70,0.00,,---,0.00,VWS V14.00,2014-01-19 09:39:00,
2014-01-19 01:41:00,35.1,26.3,30.00,North,0,0.0,0.0,70,0.00,,---,0.00,VWS V14.00,2014-01-19 09:41:00,
2014-01-19 01:42:00,35.1,26.3,30.00,North,0,0.0,0.0,70,0.00,,---,0.00,VWS V14.00,2014-01-19 09:42:00,
2014-01-19 01:44:00,34.9,26.5,30.00,North,0,0.0,0.0,71,0.00,,---,0.00,VWS V14.00,2014-01-19 09:44:00,
2014-01-19 01:47:00,34.9,26.5,30.00,North,0,0.0,0.0,71,0.00,,---,0.00,VWS V14.00,2014-01-19 09:47:00,
2014-01-19 01:48:00,34.9,26.5,30.00,North,0,0.0,0.0,71,0.00,,---,0.00,VWS V14.00,2014-01-19 09:48:00,
2014-01-19 01:49:00,34.9,26.5,30.00,North,0,0.0,0.0,71,0.00,,---,0.00,VWS V14.00,2014-01-19 09:49:00,
2014-01-19 01:50:00,34.7,26.3,30.00,North,0,0.0,0.0,71,0.00,,---,0.00,VWS V14.00,2014-01-19 09:50:00,
2014-01-19 01:51:00,34.7,26.3,30.00,North,0,0.0,0.0,71,0.00,,---,0.00,VWS V14.00,2014-01-19 09:51:00,
2014-01-19 01:53:00,34.7,26.3,30.00,North,0,0.0,0.0,71,0.00,,---,0.00,VWS V14.00,2014-01-19 09:53:00,
2014-01-19 01:55:00,34.5,26.1,30.00,North,0,0.0,0.0,71,0.00,,---,0.00,VWS V14.00,2014-01-19 09:55:00,
2014-01-19 01:56:00,34.5,26.1,30.00,North,0,0.0,0.0,71,0.00,,---,0.00,VWS V14.00,2014-01-19 09:56:00,
2014-01-19 01:58:00,34.5,26.1,30.00,North,0,0.0,0.0,71,0.00,,---,0.00,VWS V14.00,2014-01-19 09:58:00,
2014-01-19 02:01:00,34.5,26.1,30.00,North,0,0.0,0.0,71,0.00,,---,0.00,VWS V14.00,2014-01-19 10:01:00,
2014-01-19 02:03:00,34.5,26.1,30.00,North,0,0.0,0.0,71,0.00,,---,0.00,VWS V14.00,2014-01-19 10:03:00,
2014-01-19 02:04:00,34.5,26.1,30.00,North,0,0.0,0.0,71,0.00,,---,0.00,VWS V14.00,2014-01-19 10:04:00,
2014-01-19 02:05:00,34.5,26.1,30.00,North,0,0.0,0.0,71,0.00,,---,0.00,VWS V14.00,2014-01-19 10:05:00,
2014-01-19 02:10:00,34.3,25.9,30.00,North,0,0.0,0.0,71,0.00,,---,0.00,VWS V14.00,2014-01-19 10:10:00,
2014-01-19 02:11:00,34.3,25.9,30.00,North,0,0.0,0.0,71,0.00,,---,0.00,VWS V14.00,2014-01-19 10:11:00,
2014-01-19 02:12:00,34.3,25.9,30.00,North,0,0.0,0.0,71,0.00,,---,0.00,VWS V14.00,2014-01-19 10:12:00,
2014-01-19 02:13:00,34.3,25.9,30.00,North,0,0.0,0.0,71,0.00,,---,0.00,VWS V14.00,2014-01-19 10:13:00,
2014-01-19 02:15:00,34.3,25.9,30.00,North,0,0.0,0.0,71,0.00,,---,0.00,VWS V14.00,2014-01-19 10:15:00,
2014-01-19 02:17:00,34.3,25.9,30.00,North,0,0.0,0.0,71,0.00,,---,0.00,VWS V14.00,2014-01-19 10:17:00,
2014-01-19 02:19:00,34.3,25.9,30.00,North,0,0.0,0.0,71,0.00,,---,0.00,VWS V14.00,2014-01-19 10:19:00,
2014-01-19 02:20:00,34.3,25.9,30.00,North,0,0.0,0.0,71,0.00,,---,0.00,VWS V14.00,2014-01-19 10:20:00,
2014-01-19 02:21:00,34.3,25.9,30.00,North,0,0.0,0.0,71,0.00,,---,0.00,VWS V14.00,2014-01-19 10:21:00,
2014-01-19 02:24:00,34.3,25.9,30.00,North,0,0.0,0.0,71,0.00,,---,0.00,VWS V14.00,2014-01-19 10:24:00,
2014-01-19 02:25:00,34.3,25.9,30.00,North,0,0.0,0.0,71,0.00,,---,0.00,VWS V14.00,2014-01-19 10:25:00,
2014-01-19 02:30:00,34.3,25.9,30.03,North,0,0.0,0.0,71,0.00,,---,0.00,VWS V14.00,2014-01-19 10:30:00,
2014-01-19 02:32:00,34.2,25.8,30.03,North,0,0.0,0.0,71,0.00,,---,0.00,VWS V14.00,2014-01-19 10:32:00,
2014-01-19 02:37:00,34.5,27.1,30.03,North,0,0.0,0.0,74,0.00,,---,0.00,VWS V14.00,2014-01-19 10:37:00,
2014-01-19 02:38:00,34.7,27.3,30.03,North,0,0.0,0.0,74,0.00,,---,0.00,VWS V14.00,2014-01-19 10:38:00,
2014-01-19 02:39:00,34.7,27.3,30.03,North,0,0.0,0.0,74,0.00,,---,0.00,VWS V14.00,2014-01-19 10:39:00,
2014-01-19 02:40:00,34.9,27.5,30.03,North,0,0.0,0.0,74,0.00,,---,0.00,VWS V14.00,2014-01-19 10:40:00,
2014-01-19 02:42:00,34.9,27.5,30.03,North,0,0.0,0.0,74,0.00,,---,0.00,VWS V14.00,2014-01-19 10:42:00,
2014-01-19 02:45:00,34.9,27.5,30.03,North,0,0.0,0.0,74,0.00,,---,0.00,VWS V14.00,2014-01-19 10:45:00,
2014-01-19 02:47:00,34.9,27.5,30.03,North,0,0.0,0.0,74,0.00,,---,0.00,VWS V14.00,2014-01-19 10:47:00,
2014-01-19 02:48:00,34.9,27.8,30.03,North,0,0.0,0.0,75,0.00,,---,0.00,VWS V14.00,2014-01-19 10:48:00,
2014-01-19 02:51:00,34.9,27.8,30.03,North,0,0.0,0.0,75,0.00,,---,0.00,VWS V14.00,2014-01-19 10:51:00,
2014-01-19 02:53:00,34.7,27.6,30.03,North,0,0.0,0.0,75,0.00,,---,0.00,VWS V14.00,2014-01-19 10:53:00,
2014-01-19 02:54:00,34.7,27.6,30.03,North,0,0.0,0.0,75,0.00,,---,0.00,VWS V14.00,2014-01-19 10:54:00,
2014-01-19 02:55:00,34.7,27.6,30.03,North,0,0.0,0.0,75,0.00,,---,0.00,VWS V14.00,2014-01-19 10:55:00,
2014-01-19 02:56:00,34.7,27.6,30.03,North,0,0.0,0.0,75,0.00,,---,0.00,VWS V14.00,2014-01-19 10:56:00,
2014-01-19 03:00:00,35.1,28.0,30.03,North,0,0.0,0.0,75,0.00,,---,0.00,VWS V14.00,2014-01-19 11:00:00,
2014-01-19 03:02:00,35.1,28.0,30.03,North,0,0.0,0.0,75,0.00,,---,0.00,VWS V14.00,2014-01-19 11:02:00,
2014-01-19 03:03:00,35.1,28.0,30.03,North,0,0.0,0.0,75,0.00,,---,0.00,VWS V14.00,2014-01-19 11:03:00,
2014-01-19 03:04:00,35.1,28.0,30.03,North,0,0.0,0.0,75,0.00,,---,0.00,VWS V14.00,2014-01-19 11:04:00,
2014-01-19 03:05:00,35.1,28.0,30.03,North,0,0.0,0.0,75,0.00,,---,0.00,VWS V14.00,2014-01-19 11:05:00,
2014-01-19 03:07:00,35.1,28.0,30.03,North,0,0.0,0.0,75,0.00,,---,0.00,VWS V14.00,2014-01-19 11:07:00,
2014-01-19 03:10:00,35.1,28.0,30.03,North,0,0.0,0.0,75,0.00,,---,0.00,VWS V14.00,2014-01-19 11:10:00,
2014-01-19 03:11:00,35.1,28.0,30.03,North,0,0.0,0.0,75,0.00,,---,0.00,VWS V14.00,2014-01-19 11:11:00,
2014-01-19 03:12:00,35.1,28.0,30.03,North,0,0.0,0.0,75,0.00,,---,0.00,VWS V14.00,2014-01-19 11:12:00,
2014-01-19 03:13:00,35.1,28.0,30.03,North,0,0.0,0.0,75,0.00,,---,0.00,VWS V14.00,2014-01-19 11:13:00,
2014-01-19 03:16:00,35.1,28.0,30.03,North,0,0.0,0.0,75,0.00,,---,0.00,VWS V14.00,2014-01-19 11:16:00,
2014-01-19 03:18:00,35.1,28.0,30.03,North,0,0.0,0.0,75,0.00,,---,0.00,VWS V14.00,2014-01-19 11:18:00,
2014-01-19 03:19:00,35.2,28.1,30.03,North,0,0.0,0.0,75,0.00,,---,0.00,VWS V14.00,2014-01-19 11:19:00,
2014-01-19 03:22:00,35.2,28.1,30.03,North,0,0.0,0.0,75,0.00,,---,0.00,VWS V14.00,2014-01-19 11:22:00,
2014-01-19 03:23:00,35.2,28.1,30.03,North,0,0.0,0.0,75,0.00,,---,0.00,VWS V14.00,2014-01-19 11:23:00,
2014-01-19 03:24:00,35.1,27.6,30.03,North,0,0.0,0.0,74,0.00,,---,0.00,VWS V14.00,2014-01-19 11:24:00,
2014-01-19 03:25:00,35.1,27.6,30.03,North,0,0.0,0.0,74,0.00,,---,0.00,VWS V14.00,2014-01-19 11:25:00,
2014-01-19 03:27:00,35.1,28.0,30.03,North,0,0.0,0.0,75,0.00,,---,0.00,VWS V14.00,2014-01-19 11:27:00,
2014-01-19 03:28:00,35.1,28.0,30.03,North,0,0.0,0.0,75,0.00,,---,0.00,VWS V14.00,2014-01-19 11:28:00,
2014-01-19 03:29:00,35.1,28.0,30.03,North,0,0.0,0.0,75,0.00,,---,0.00,VWS V14.00,2014-01-19 11:29:00,
2014-01-19 03:30:00,35.1,28.0,30.03,North,0,0.0,0.0,75,0.00,,---,0.00,VWS V14.00,2014-01-19 11:30:00,
2014-01-19 03:31:00,35.1,28.0,30.03,North,0,0.0,0.0,75,0.00,,---,0.00,VWS V14.00,2014-01-19 11:31:00,
2014-01-19 03:33:00,35.1,28.0,30.03,North,0,0.0,0.0,75,0.00,,---,0.00,VWS V14.00,2014-01-19 11:33:00,
2014-01-19 03:34:00,35.1,28.0,30.03,North,0,0.0,0.0,75,0.00,,---,0.00,VWS V14.00,2014-01-19 11:34:00,
2014-01-19 03:39:00,35.1,28.0,30.03,North,0,0.0,0.0,75,0.00,,---,0.00,VWS V14.00,2014-01-19 11:39:00,
2014-01-19 03:41:00,35.1,28.0,30.03,North,0,0.0,0.0,75,0.00,,---,0.00,VWS V14.00,2014-01-19 11:41:00,
2014-01-19 03:42:00,35.1,28.0,30.03,North,0,0.0,0.0,75,0.00,,---,0.00,VWS V14.00,2014-01-19 11:42:00,
2014-01-19 03:43:00,35.1,28.0,30.03,North,0,0.0,0.0,75,0.00,,---,0.00,VWS V14.00,2014-01-19 11:43:00,
2014-01-19 03:44:00,35.1,28.0,30.03,North,0,0.0,0.0,75,0.00,,---,0.00,VWS V14.00,2014-01-19 11:44:00,
2014-01-19 03:48:00,34.9,27.8,30.03,North,0,0.0,0.0,75,0.00,,---,0.00,VWS V14.00,2014-01-19 11:48:00,
2014-01-19 03:49:00,34.9,27.8,30.03,North,0,0.0,0.0,75,0.00,,---,0.00,VWS V14.00,2014-01-19 11:49:00,
2014-01-19 03:50:00,34.9,27.8,30.03,North,0,0.0,0.0,75,0.00,,---,0.00,VWS V14.00,2014-01-19 11:50:00,
2014-01-19 03:51:00,34.9,27.5,30.03,North,0,0.0,0.0,74,0.00,,---,0.00,VWS V14.00,2014-01-19 11:51:00,
2014-01-19 03:54:00,34.7,27.3,30.03,North,0,0.0,0.0,74,0.00,,---,0.00,VWS V14.00,2014-01-19 11:54:00,
2014-01-19 03:55:00,34.7,27.3,30.03,North,0,0.0,0.0,74,0.00,,---,0.00,VWS V14.00,2014-01-19 11:55:00,
2014-01-19 03:56:00,34.7,27.3,30.03,North,0,0.0,0.0,74,0.00,,---,0.00,VWS V14.00,2014-01-19 11:56:00,
2014-01-19 03:57:00,34.7,27.3,30.03,North,0,0.0,0.0,74,0.00,,---,0.00,VWS V14.00,2014-01-19 11:57:00,
2014-01-19 03:59:00,34.5,27.1,30.03,North,0,0.0,0.0,74,0.00,,---,0.00,VWS V14.00,2014-01-19 11:59:00,
2014-01-19 04:01:00,34.5,26.8,30.03,North,0,0.0,0.0,73,0.00,,---,0.00,VWS V14.00,2014-01-19 12:01:00,
2014-01-19 04:02:00,34.5,26.8,30.03,North,0,0.0,0.0,73,0.00,,---,0.00,VWS V14.00,2014-01-19 12:02:00,
2014-01-19 04:04:00,34.5,26.8,30.03,North,0,0.0,0.0,73,0.00,,---,0.00,VWS V14.00,2014-01-19 12:04:00,
2014-01-19 04:06:00,34.3,26.6,30.03,North,0,0.0,0.0,73,0.00,,---,0.00,VWS V14.00,2014-01-19 12:06:00,
2014-01-19 04:09:00,34.3,26.6,30.03,North,0,0.0,0.0,73,0.00,,---,0.00,VWS V14.00,2014-01-19 12:09:00,
2014-01-19 04:11:00,34.3,26.6,30.03,North,0,0.0,0.0,73,0.00,,---,0.00,VWS V14.00,2014-01-19 12:11:00,
2014-01-19 04:12:00,34.3,26.6,30.03,North,0,0.0,0.0,73,0.00,,---,0.00,VWS V14.00,2014-01-19 12:12:00,
2014-01-19 04:16:00,34.2,26.4,30.03,North,0,0.0,0.0,73,0.00,,---,0.00,VWS V14.00,2014-01-19 12:16:00,
2014-01-19 04:17:00,34.2,26.4,30.03,North,0,0.0,0.0,73,0.00,,---,0.00,VWS V14.00,2014-01-19 12:17:00,
2014-01-19 04:19:00,34.2,26.4,30.03,North,0,0.0,0.0,73,0.00,,---,0.00,VWS V14.00,2014-01-19 12:19:00,
2014-01-19 04:22:00,34.0,26.2,30.03,North,0,0.0,0.0,73,0.00,,---,0.00,VWS V14.00,2014-01-19 12:22:00,
2014-01-19 04:24:00,34.0,26.2,30.03,North,0,0.0,0.0,73,0.00,,---,0.00,VWS V14.00,2014-01-19 12:24:00,
2014-01-19 04:27:00,34.0,25.9,30.03,North,0,0.0,0.0,72,0.00,,---,0.00,VWS V14.00,2014-01-19 12:27:00,
2014-01-19 04:29:00,33.8,25.7,30.03,North,0,0.0,0.0,72,0.00,,---,0.00,VWS V14.00,2014-01-19 12:29:00,
2014-01-19 04:31:00,33.8,25.7,30.03,North,0,0.0,0.0,72,0.00,,---,0.00,VWS V14.00,2014-01-19 12:31:00,
2014-01-19 04:33:00,33.6,25.6,30.03,North,0,0.0,0.0,72,0.00,,---,0.00,VWS V14.00,2014-01-19 12:33:00,
2014-01-19 04:34:00,33.6,25.6,30.03,North,0,0.0,0.0,72,0.00,,---,0.00,VWS V14.00,2014-01-19 12:34:00,
2014-01-19 04:35:00,33.6,25.6,30.03,North,0,0.0,0.0,72,0.00,,---,0.00,VWS V14.00,2014-01-19 12:35:00,
2014-01-19 04:36:00,33.6,25.6,30.03,North,0,0.0,0.0,72,0.00,,---,0.00,VWS V14.00,2014-01-19 12:36:00,
2014-01-19 04:37:00,33.6,25.6,30.03,North,0,0.0,0.0,72,0.00,,---,0.00,VWS V14.00,2014-01-19 12:37:00,
2014-01-19 04:39:00,33.6,25.6,30.03,North,0,0.0,0.0,72,0.00,,---,0.00,VWS V14.00,2014-01-19 12:39:00,
2014-01-19 04:40:00,33.6,25.6,30.03,North,0,0.0,0.0,72,0.00,,---,0.00,VWS V14.00,2014-01-19 12:40:00,
2014-01-19 04:42:00,33.6,25.6,30.03,North,0,0.0,0.0,72,0.00,,---,0.00,VWS V14.00,2014-01-19 12:42:00,
2014-01-19 04:44:00,33.4,25.4,30.03,North,0,0.0,0.0,72,0.00,,---,0.00,VWS V14.00,2014-01-19 12:44:00,
2014-01-19 04:45:00,33.4,25.4,30.03,North,0,0.0,0.0,72,0.00,,---,0.00,VWS V14.00,2014-01-19 12:45:00,
2014-01-19 04:49:00,33.4,25.4,30.03,North,0,0.0,0.0,72,0.00,,---,0.00,VWS V14.00,2014-01-19 12:49:00,
2014-01-19 04:50:00,33.4,25.7,30.03,North,0,0.0,0.0,73,0.00,,---,0.00,VWS V14.00,2014-01-19 12:50:00,
2014-01-19 04:51:00,33.4,25.7,30.03,North,0,0.0,0.0,73,0.00,,---,0.00,VWS V14.00,2014-01-19 12:51:00,
2014-01-19 04:52:00,33.4,25.7,30.03,North,0,0.0,0.0,73,0.00,,---,0.00,VWS V14.00,2014-01-19 12:52:00,
2014-01-19 04:56:00,33.3,25.6,30.03,North,0,0.0,0.0,73,0.00,,---,0.00,VWS V14.00,2014-01-19 12:56:00,
2014-01-19 04:57:00,33.3,25.2,30.03,North,0,0.0,0.0,72,0.00,,---,0.00,VWS V14.00,2014-01-19 12:57:00,
2014-01-19 04:58:00,33.3,25.2,30.03,North,0,0.0,0.0,72,0.00,,---,0.00,VWS V14.00,2014-01-19 12:58:00,
2014-01-19 05:00:00,33.3,25.6,30.03,North,0,0.0,0.0,73,0.00,,---,0.00,VWS V14.00,2014-01-19 13:00:00,
2014-01-19 05:03:00,33.1,25.4,30.03,North,0,0.0,0.0,73,0.00,,---,0.00,VWS V14.00,2014-01-19 13:03:00,
2014-01-19 05:04:00,33.1,25.4,30.03,North,0,0.0,0.0,73,0.00,,---,0.00,VWS V14.00,2014-01-19 13:04:00,
2014-01-19 05:06:00,33.1,25.4,30.03,North,0,0.0,0.0,73,0.00,,---,0.00,VWS V14.00,2014-01-19 13:06:00,
2014-01-19 05:08:00,33.1,25.4,30.03,North,0,0.0,0.0,73,0.00,,---,0.00,VWS V14.00,2014-01-19 13:08:00,
2014-01-19 05:10:00,33.1,25.4,30.03,North,0,0.0,0.0,73,0.00,,---,0.00,VWS V14.00,2014-01-19 13:10:00,
2014-01-19 05:11:00,33.1,25.7,30.03,North,0,0.0,0.0,74,0.00,,---,0.00,VWS V14.00,2014-01-19 13:11:00,
2014-01-19 05:12:00,32.9,25.5,30.03,North,0,0.0,0.0,74,0.00,,---,0.00,VWS V14.00,2014-01-19 13:12:00,
2014-01-19 05:13:00,32.9,25.5,30.03,North,0,0.0,0.0,74,0.00,,---,0.00,VWS V14.00,2014-01-19 13:13:00,
2014-01-19 05:14:00,32.9,25.5,30.03,North,0,0.0,0.0,74,0.00,,---,0.00,VWS V14.00,2014-01-19 13:14:00,
2014-01-19 05:15:00,32.9,25.2,30.03,North,0,0.0,0.0,73,0.00,,---,0.00,VWS V14.00,2014-01-19 13:15:00,
2014-01-19 05:17:00,32.9,25.2,30.03,North,0,0.0,0.0,73,0.00,,---,0.00,VWS V14.00,2014-01-19 13:17:00,
2014-01-19 05:18:00,32.9,25.2,30.03,North,0,0.0,0.0,73,0.00,,---,0.00,VWS V14.00,2014-01-19 13:18:00,
2014-01-19 05:19:00,32.7,25.0,30.03,North,0,0.0,0.0,73,0.00,,---,0.00,VWS V14.00,2014-01-19 13:19:00,
2014-01-19 05:20:00,32.7,25.0,30.03,North,0,0.0,0.0,73,0.00,,---,0.00,VWS V14.00,2014-01-19 13:20:00,
2014-01-19 05:23:00,32.9,25.2,30.03,North,0,0.0,0.0,73,0.00,,---,0.00,VWS V14.00,2014-01-19 13:23:00,
2014-01-19 05:25:00,32.9,25.2,30.03,North,0,0.0,0.0,73,0.00,,---,0.00,VWS V14.00,2014-01-19 13:25:00,
2014-01-19 05:26:00,32.7,25.0,30.03,North,0,0.0,0.0,73,0.00,,---,0.00,VWS V14.00,2014-01-19 13:26:00,
2014-01-19 05:27:00,32.7,25.0,30.03,North,0,0.0,0.0,73,0.00,,---,0.00,VWS V14.00,2014-01-19 13:27:00,
2014-01-19 05:28:00,32.7,25.0,30.03,North,0,0.0,0.0,73,0.00,,---,0.00,VWS V14.00,2014-01-19 13:28:00,
2014-01-19 05:30:00,32.7,25.0,30.03,North,0,0.0,0.0,73,0.00,,---,0.00,VWS V14.00,2014-01-19 13:30:00,
2014-01-19 05:33:00,32.5,24.9,30.03,North,0,0.0,0.0,73,0.00,,---,0.00,VWS V14.00,2014-01-19 13:33:00,
2014-01-19 05:34:00,32.5,25.2,30.03,North,0,0.0,0.0,74,0.00,,---,0.00,VWS V14.00,2014-01-19 13:34:00,
2014-01-19 05:35:00,32.5,25.2,30.03,North,0,0.0,0.0,74,0.00,,---,0.00,VWS V14.00,2014-01-19 13:35:00,
2014-01-19 05:39:00,32.5,25.2,30.03,North,0,0.0,0.0,74,0.00,,---,0.00,VWS V14.00,2014-01-19 13:39:00,
2014-01-19 05:40:00,32.7,25.4,30.03,North,0,0.0,0.0,74,0.00,,---,0.00,VWS V14.00,2014-01-19 13:40:00,
2014-01-19 05:41:00,32.7,25.4,30.03,North,0,0.0,0.0,74,0.00,,---,0.00,VWS V14.00,2014-01-19 13:41:00,
2014-01-19 05:44:00,32.5,25.2,30.03,North,0,0.0,0.0,74,0.00,,---,0.00,VWS V14.00,2014-01-19 13:44:00,
2014-01-19 05:45:00,32.5,25.2,30.03,North,0,0.0,0.0,74,0.00,,---,0.00,VWS V14.00,2014-01-19 13:45:00,
2014-01-19 05:46:00,32.5,25.2,30.03,North,0,0.0,0.0,74,0.00,,---,0.00,VWS V14.00,2014-01-19 13:46:00,
2014-01-19 05:49:00,32.5,25.5,30.03,North,0,0.0,0.0,75,0.00,,---,0.00,VWS V14.00,2014-01-19 13:49:00,
2014-01-19 05:50:00,32.5,25.5,30.03,North,0,0.0,0.0,75,0.00,,---,0.00,VWS V14.00,2014-01-19 13:50:00,
2014-01-19 05:52:00,32.5,25.5,30.03,North,0,0.0,0.0,75,0.00,,---,0.00,VWS V14.00,2014-01-19 13:52:00,
2014-01-19 05:54:00,32.7,25.7,30.03,North,0,0.0,0.0,75,0.00,,---,0.00,VWS V14.00,2014-01-19 13:54:00,
2014-01-19 05:56:00,32.7,26.0,30.03,North,0,0.0,0.0,76,0.00,,---,0.00,VWS V14.00,2014-01-19 13:56:00,
2014-01-19 05:57:00,32.7,26.0,30.03,North,0,0.0,0.0,76,0.00,,---,0.00,VWS V14.00,2014-01-19 13:57:00,
2014-01-19 05:58:00,32.7,26.0,30.03,North,0,0.0,0.0,76,0.00,,---,0.00,VWS V14.00,2014-01-19 13:58:00,
2014-01-19 06:01:00,32.7,26.0,30.03,North,0,0.0,0.0,76,0.00,,---,0.00,VWS V14.00,2014-01-19 14:01:00,
2014-01-19 06:04:00,32.7,26.0,30.03,North,0,0.0,0.0,76,0.00,,---,0.00,VWS V14.00,2014-01-19 14:04:00,
2014-01-19 06:06:00,32.7,26.0,30.03,North,0,0.0,0.0,76,0.00,,---,0.00,VWS V14.00,2014-01-19 14:06:00,
2014-01-19 06:07:00,32.7,26.0,30.03,North,0,0.0,0.0,76,0.00,,---,0.00,VWS V14.00,2014-01-19 14:07:00,
2014-01-19 06:08:00,32.7,26.0,30.03,North,0,0.0,0.0,76,0.00,,---,0.00,VWS V14.00,2014-01-19 14:08:00,
2014-01-19 06:12:00,32.7,26.0,30.03,North,0,0.0,0.0,76,0.00,,---,0.00,VWS V14.00,2014-01-19 14:12:00,
2014-01-19 06:13:00,32.7,26.0,30.03,North,0,0.0,0.0,76,0.00,,---,0.00,VWS V14.00,2014-01-19 14:13:00,
2014-01-19 06:14:00,32.7,26.0,30.03,North,0,0.0,0.0,76,0.00,,---,0.00,VWS V14.00,2014-01-19 14:14:00,
2014-01-19 06:19:00,32.7,26.0,30.03,North,0,0.0,0.0,76,0.00,,---,0.00,VWS V14.00,2014-01-19 14:19:00,
2014-01-19 06:20:00,32.7,26.0,30.03,North,0,0.0,0.0,76,0.00,,---,0.00,VWS V14.00,2014-01-19 14:20:00,
2014-01-19 06:21:00,32.7,26.0,30.03,North,0,0.0,0.0,76,0.00,,---,0.00,VWS V14.00,2014-01-19 14:21:00,
2014-01-19 06:23:00,32.7,26.3,30.03,North,0,0.0,0.0,77,0.00,,---,0.00,VWS V14.00,2014-01-19 14:23:00,
2014-01-19 06:28:00,32.7,26.3,30.03,North,0,0.0,0.0,77,0.00,,---,0.00,VWS V14.00,2014-01-19 14:28:00,
2014-01-19 06:29:00,32.7,26.3,30.03,North,0,0.0,0.0,77,0.00,,---,0.00,VWS V14.00,2014-01-19 14:29:00,
2014-01-19 06:30:00,32.7,26.3,30.03,North,0,0.0,0.0,77,0.00,,---,0.00,VWS V14.00,2014-01-19 14:30:00,
2014-01-19 06:31:00,32.7,26.0,30.03,North,0,0.0,0.0,76,0.00,,---,0.00,VWS V14.00,2014-01-19 14:31:00,
2014-01-19 06:33:00,32.7,26.0,30.03,North,0,0.0,0.0,76,0.00,,---,0.00,VWS V14.00,2014-01-19 14:33:00,
2014-01-19 06:35:00,32.9,26.2,30.03,North,0,0.0,0.0,76,0.00,,---,0.00,VWS V14.00,2014-01-19 14:35:00,
2014-01-19 06:37:00,32.9,26.2,30.03,North,0,0.0,0.0,76,0.00,,---,0.00,VWS V14.00,2014-01-19 14:37:00,
2014-01-19 06:39:00,32.9,26.2,30.03,North,0,0.0,0.0,76,0.00,,---,0.00,VWS V14.00,2014-01-19 14:39:00,
2014-01-19 06:43:00,32.7,25.7,30.06,North,0,0.0,0.0,75,0.00,,---,0.00,VWS V14.00,2014-01-19 14:43:00,
2014-01-19 06:44:00,32.7,25.7,30.06,North,0,0.0,0.0,75,0.00,,---,0.00,VWS V14.00,2014-01-19 14:44:00,
2014-01-19 06:46:00,32.7,25.7,30.06,North,0,0.0,0.0,75,0.00,,---,0.00,VWS V14.00,2014-01-19 14:46:00,
2014-01-19 06:48:00,32.7,25.7,30.06,North,0,0.0,0.0,75,0.00,,---,0.00,VWS V14.00,2014-01-19 14:48:00,
2014-01-19 06:49:00,32.7,25.7,30.06,North,0,0.0,0.0,75,0.00,,---,0.00,VWS V14.00,2014-01-19 14:49:00,
2014-01-19 06:51:00,32.7,25.7,30.06,North,0,0.0,0.0,75,0.00,,---,0.00,VWS V14.00,2014-01-19 14:51:00,
2014-01-19 06:53:00,32.5,25.5,30.06,North,0,0.0,0.0,75,0.00,,---,0.00,VWS V14.00,2014-01-19 14:53:00,
2014-01-19 06:57:00,32.4,25.3,30.06,North,0,0.0,0.0,75,0.00,,---,0.00,VWS V14.00,2014-01-19 14:57:00,
2014-01-19 06:59:00,32.4,25.3,30.06,North,0,0.0,0.0,75,0.00,,---,0.00,VWS V14.00,2014-01-19 14:59:00,
2014-01-19 07:01:00,32.4,25.3,30.06,North,0,0.0,0.0,75,0.00,,---,0.00,VWS V14.00,2014-01-19 15:01:00,
2014-01-19 07:02:00,32.2,25.2,30.06,North,0,0.0,0.0,75,0.00,,---,0.00,VWS V14.00,2014-01-19 15:02:00,
2014-01-19 07:06:00,32.2,24.8,30.06,North,0,0.0,0.0,74,0.00,,---,0.00,VWS V14.00,2014-01-19 15:06:00,
2014-01-19 07:07:00,32.2,24.8,30.06,North,0,0.0,0.0,74,0.00,,---,0.00,VWS V14.00,2014-01-19 15:07:00,
2014-01-19 07:08:00,32.2,24.8,30.06,North,0,0.0,0.0,74,0.00,,---,0.00,VWS V14.00,2014-01-19 15:08:00,
2014-01-19 07:12:00,32.0,24.7,30.06,North,0,0.0,0.0,74,0.00,,---,0.00,VWS V14.00,2014-01-19 15:12:00,
2014-01-19 07:13:00,32.0,24.7,30.06,North,0,0.0,0.0,74,0.00,,---,0.00,VWS V14.00,2014-01-19 15:13:00,
2014-01-19 07:15:00,32.0,25.0,30.06,North,0,0.0,0.0,75,0.00,,---,0.00,VWS V14.00,2014-01-19 15:15:00,
2014-01-19 07:17:00,32.0,25.0,30.06,North,0,0.0,0.0,75,0.00,,---,0.00,VWS V14.00,2014-01-19 15:17:00,
2014-01-19 07:18:00,32.0,25.0,30.06,North,0,0.0,0.0,75,0.00,,---,0.00,VWS V14.00,2014-01-19 15:18:00,
2014-01-19 07:20:00,32.0,25.0,30.06,North,0,0.0,0.0,75,0.00,,---,0.00,VWS V14.00,2014-01-19 15:20:00,
2014-01-19 07:22:00,31.8,24.8,30.06,North,0,0.0,0.0,75,0.00,,---,0.00,VWS V14.00,2014-01-19 15:22:00,
2014-01-19 07:23:00,31.8,24.8,30.06,North,0,0.0,0.0,75,0.00,,---,0.00,VWS V14.00,2014-01-19 15:23:00,
2014-01-19 07:28:00,31.8,25.1,30.06,North,0,0.0,0.0,76,0.00,,---,0.00,VWS V14.00,2014-01-19 15:28:00,
2014-01-19 07:29:00,32.0,25.3,30.06,North,0,0.0,0.0,76,0.00,,---,0.00,VWS V14.00,2014-01-19 15:29:00,
2014-01-19 07:32:00,32.0,25.3,30.06,North,0,0.0,0.0,76,0.00,,---,0.00,VWS V14.00,2014-01-19 15:32:00,
2014-01-19 07:33:00,32.0,25.3,30.06,North,0,0.0,0.0,76,0.00,,---,0.00,VWS V14.00,2014-01-19 15:33:00,
2014-01-19 07:35:00,32.0,25.3,30.06,North,0,0.0,0.0,76,0.00,,---,0.00,VWS V14.00,2014-01-19 15:35:00,
2014-01-19 07:36:00,32.0,25.6,30.06,North,0,0.0,0.0,77,0.00,,---,0.00,VWS V14.00,2014-01-19 15:36:00,
2014-01-19 07:38:00,32.0,25.6,30.06,North,0,0.0,0.0,77,0.00,,---,0.00,VWS V14.00,2014-01-19 15:38:00,
2014-01-19 07:39:00,32.0,25.6,30.06,North,0,0.0,0.0,77,0.00,,---,0.00,VWS V14.00,2014-01-19 15:39:00,
2014-01-19 07:41:00,32.0,25.6,30.06,North,0,0.0,0.0,77,0.00,,---,0.00,VWS V14.00,2014-01-19 15:41:00,
2014-01-19 07:42:00,32.0,25.6,30.06,North,0,0.0,0.0,77,0.00,,---,0.00,VWS V14.00,2014-01-19 15:42:00,
2014-01-19 07:43:00,32.0,25.6,30.06,North,0,0.0,0.0,77,0.00,,---,0.00,VWS V14.00,2014-01-19 15:43:00,
2014-01-19 07:46:00,32.2,25.8,30.06,North,0,0.0,0.0,77,0.00,,---,0.00,VWS V14.00,2014-01-19 15:46:00,
2014-01-19 07:47:00,32.2,25.8,30.06,North,0,0.0,0.0,77,0.00,,---,0.00,VWS V14.00,2014-01-19 15:47:00,
2014-01-19 07:48:00,32.2,25.5,30.06,North,0,0.0,0.0,76,0.00,,---,0.00,VWS V14.00,2014-01-19 15:48:00,
2014-01-19 07:50:00,32.2,25.5,30.06,North,0,0.0,0.0,76,0.00,,---,0.00,VWS V14.00,2014-01-19 15:50:00,
2014-01-19 07:55:00,32.4,25.6,30.06,North,0,0.0,0.0,76,0.00,,---,0.00,VWS V14.00,2014-01-19 15:55:00,
2014-01-19 07:56:00,32.4,25.6,30.06,North,0,0.0,0.0,76,0.00,,---,0.00,VWS V14.00,2014-01-19 15:56:00,
2014-01-19 07:57:00,32.4,25.6,30.06,North,0,0.0,0.0,76,0.00,,---,0.00,VWS V14.00,2014-01-19 15:57:00,
2014-01-19 07:59:00,32.4,25.6,30.06,North,0,0.0,0.0,76,0.00,,---,0.00,VWS V14.00,2014-01-19 15:59:00,
2014-01-19 08:00:00,32.4,25.6,30.06,North,0,0.0,0.0,76,0.00,,---,0.00,VWS V14.00,2014-01-19 16:00:00,
2014-01-19 08:01:00,32.4,25.6,30.06,North,0,0.0,0.0,76,0.00,,---,0.00,VWS V14.00,2014-01-19 16:01:00,
2014-01-19 08:02:00,32.4,25.6,30.06,North,0,0.0,0.0,76,0.00,,---,0.00,VWS V14.00,2014-01-19 16:02:00,
2014-01-19 08:07:00,32.7,26.0,30.06,North,0,0.0,0.0,76,0.00,,---,0.00,VWS V14.00,2014-01-19 16:07:00,
2014-01-19 08:09:00,32.9,26.2,30.06,North,0,0.0,0.0,76,0.00,,---,0.00,VWS V14.00,2014-01-19 16:09:00,
2014-01-19 08:11:00,33.1,26.4,30.06,North,0,0.0,0.0,76,0.00,,---,0.00,VWS V14.00,2014-01-19 16:11:00,
2014-01-19 08:12:00,33.3,26.5,30.06,North,0,0.0,0.0,76,0.00,,---,0.00,VWS V14.00,2014-01-19 16:12:00,
2014-01-19 08:16:00,33.6,27.2,30.06,North,0,0.0,0.0,77,0.00,,---,0.00,VWS V14.00,2014-01-19 16:16:00,
2014-01-19 08:17:00,33.6,27.2,30.06,North,0,0.0,0.0,77,0.00,,---,0.00,VWS V14.00,2014-01-19 16:17:00,
2014-01-19 08:19:00,33.8,27.0,30.06,North,0,0.0,0.0,76,0.00,,---,0.00,VWS V14.00,2014-01-19 16:19:00,
2014-01-19 08:20:00,34.0,27.2,30.06,North,0,0.0,0.0,76,0.00,,---,0.00,VWS V14.00,2014-01-19 16:20:00,
2014-01-19 08:21:00,34.2,27.4,30.06,North,0,0.0,0.0,76,0.00,,---,0.00,VWS V14.00,2014-01-19 16:21:00,
2014-01-19 08:22:00,34.3,27.9,30.06,North,0,0.0,0.0,77,0.00,,---,0.00,VWS V14.00,2014-01-19 16:22:00,
2014-01-19 08:26:00,34.9,28.4,30.06,North,0,0.0,0.0,77,0.00,,---,0.00,VWS V14.00,2014-01-19 16:26:00,
2014-01-19 08:27:00,35.1,28.6,30.06,North,0,0.0,0.0,77,0.00,,---,0.00,VWS V14.00,2014-01-19 16:27:00,
2014-01-19 08:28:00,35.2,28.8,30.06,North,0,0.0,0.0,77,0.00,,---,0.00,VWS V14.00,2014-01-19 16:28:00,
2014-01-19 08:30:00,35.6,29.1,30.06,North,0,0.0,0.0,77,0.00,,---,0.00,VWS V14.00,2014-01-19 16:30:00,
2014-01-19 08:31:00,35.8,29.3,30.06,North,0,0.0,0.0,77,0.00,,---,0.00,VWS V14.00,2014-01-19 16:31:00,
2014-01-19 08:32:00,36.0,29.5,30.06,North,0,0.0,0.0,77,0.00,,---,0.00,VWS V14.00,2014-01-19 16:32:00,
2014-01-19 08:33:00,36.3,29.8,30.06,North,0,0.0,0.0,77,0.00,,---,0.00,VWS V14.00,2014-01-19 16:33:00,
2014-01-19 08:35:00,36.9,30.6,30.06,North,0,0.0,0.0,78,0.00,,---,0.00,VWS V14.00,2014-01-19 16:35:00,
2014-01-19 08:36:00,37.0,30.8,30.06,North,0,0.0,0.0,78,0.00,,---,0.00,VWS V14.00,2014-01-19 16:36:00,
2014-01-19 08:38:00,37.6,31.4,30.06,North,0,0.0,0.0,78,0.00,,---,0.00,VWS V14.00,2014-01-19 16:38:00,
2014-01-19 08:40:00,38.3,31.7,30.06,North,0,0.0,0.0,77,0.00,,---,0.00,VWS V14.00,2014-01-19 16:40:00,
2014-01-19 08:42:00,39.0,31.5,30.06,North,0,0.0,0.0,74,0.00,,---,0.00,VWS V14.00,2014-01-19 16:42:00,
2014-01-19 08:44:00,39.4,30.1,30.06,North,0,0.0,0.0,69,0.00,,---,0.00,VWS V14.00,2014-01-19 16:44:00,
2014-01-19 08:45:00,39.6,29.5,30.06,North,0,0.0,0.0,67,0.00,,---,0.00,VWS V14.00,2014-01-19 16:45:00,
2014-01-19 08:47:00,39.9,29.1,30.06,North,0,0.0,0.0,65,0.00,,---,0.00,VWS V14.00,2014-01-19 16:47:00,
2014-01-19 08:48:00,40.3,28.7,30.06,North,0,0.0,0.0,63,0.00,,---,0.00,VWS V14.00,2014-01-19 16:48:00,
2014-01-19 08:50:00,40.5,28.5,30.06,North,0,0.0,0.0,62,0.00,,---,0.00,VWS V14.00,2014-01-19 16:50:00,
2014-01-19 08:54:00,41.2,27.5,30.06,North,0,0.0,0.0,58,0.00,,---,0.00,VWS V14.00,2014-01-19 16:54:00,
2014-01-19 08:57:00,42.1,28.4,30.06,North,0,0.0,0.0,58,0.00,,---,0.00,VWS V14.00,2014-01-19 16:57:00,
2014-01-19 09:00:00,42.8,28.2,30.06,North,0,0.0,0.0,56,0.00,,---,0.00,VWS V14.00,2014-01-19 17:00:00,
2014-01-19 09:01:00,43.0,28.4,30.06,North,0,0.0,0.0,56,0.00,,---,0.00,VWS V14.00,2014-01-19 17:01:00,
2014-01-19 09:05:00,44.4,29.3,30.06,North,0,0.0,0.0,55,0.00,,---,0.00,VWS V14.00,2014-01-19 17:05:00,
2014-01-19 09:06:00,44.6,29.0,30.06,North,0,0.0,0.0,54,0.00,,---,0.00,VWS V14.00,2014-01-19 17:06:00,
2014-01-19 09:08:00,45.3,29.2,30.06,North,0,0.0,0.0,53,0.00,,---,0.00,VWS V14.00,2014-01-19 17:08:00,
2014-01-19 09:10:00,46.0,29.9,30.06,North,0,0.0,0.0,53,0.00,,---,0.00,VWS V14.00,2014-01-19 17:10:00,
2014-01-19 09:11:00,46.4,28.8,30.06,North,0,0.0,0.0,50,0.00,,---,0.00,VWS V14.00,2014-01-19 17:11:00,
2014-01-19 09:15:00,47.5,29.3,30.06,North,0,0.0,0.0,49,0.00,,---,0.00,VWS V14.00,2014-01-19 17:15:00,
2014-01-19 09:16:00,47.8,29.6,30.06,North,0,0.0,0.0,49,0.00,,---,0.00,VWS V14.00,2014-01-19 17:16:00,
2014-01-19 09:18:00,48.4,30.1,30.06,North,0,0.0,0.0,49,0.00,,---,0.00,VWS V14.00,2014-01-19 17:18:00,
2014-01-19 09:23:00,49.3,28.3,30.06,North,0,0.0,0.0,44,0.00,,---,0.00,VWS V14.00,2014-01-19 17:23:00,
2014-01-19 09:24:00,49.5,27.9,30.06,North,0,0.0,0.0,43,0.00,,---,0.00,VWS V14.00,2014-01-19 17:24:00,
2014-01-19 09:25:00,49.6,28.1,30.06,North,0,0.0,0.0,43,0.00,,---,0.00,VWS V14.00,2014-01-19 17:25:00,
2014-01-19 09:26:00,50.2,27.4,30.06,North,0,0.0,0.0,41,0.00,,---,0.00,VWS V14.00,2014-01-19 17:26:00,
2014-01-19 09:28:00,50.4,27.6,30.06,North,0,0.0,0.0,41,0.00,,---,0.00,VWS V14.00,2014-01-19 17:28:00,
2014-01-19 09:30:00,50.9,28.6,30.06,North,0,0.0,0.0,42,0.00,,---,0.00,VWS V14.00,2014-01-19 17:30:00,
2014-01-19 09:31:00,50.9,28.6,30.06,North,0,0.0,0.0,42,0.00,,---,0.00,VWS V14.00,2014-01-19 17:31:00,
2014-01-19 09:33:00,51.6,28.7,30.06,North,0,0.0,0.0,41,0.00,,---,0.00,VWS V14.00,2014-01-19 17:33:00,
2014-01-19 09:34:00,52.0,28.4,30.06,North,0,0.0,0.0,40,0.00,,---,0.00,VWS V14.00,2014-01-19 17:34:00,
2014-01-19 09:36:00,52.3,29.4,30.06,North,0,0.0,0.0,41,0.00,,---,0.00,VWS V14.00,2014-01-19 17:36:00,
2014-01-19 09:37:00,52.5,29.5,30.06,North,0,0.0,0.0,41,0.00,,---,0.00,VWS V14.00,2014-01-19 17:37:00,
2014-01-19 09:38:00,52.5,28.3,30.06,North,0,0.0,0.0,39,0.00,,---,0.00,VWS V14.00,2014-01-19 17:38:00,
2014-01-19 09:39:00,52.7,29.1,30.06,North,0,0.0,0.0,40,0.00,,---,0.00,VWS V14.00,2014-01-19 17:39:00,
2014-01-19 09:42:00,53.6,29.3,30.06,North,0,0.0,0.0,39,0.00,,---,0.00,VWS V14.00,2014-01-19 17:42:00,
2014-01-19 09:44:00,53.8,28.8,30.06,North,0,0.0,0.0,38,0.00,,---,0.00,VWS V14.00,2014-01-19 17:44:00,
2014-01-19 09:46:00,54.3,29.3,30.06,North,0,0.0,0.0,38,0.00,,---,0.00,VWS V14.00,2014-01-19 17:46:00,
2014-01-19 09:49:00,55.0,29.9,30.06,North,0,0.0,0.0,38,0.00,,---,0.00,VWS V14.00,2014-01-19 17:49:00,
2014-01-19 09:50:00,55.2,29.4,30.06,North,0,0.0,0.0,37,0.00,,---,0.00,VWS V14.00,2014-01-19 17:50:00,
2014-01-19 09:55:00,56.3,30.4,30.06,North,0,0.0,0.0,37,0.00,,---,0.00,VWS V14.00,2014-01-19 17:55:00,
2014-01-19 09:57:00,56.8,30.9,30.06,North,0,0.0,0.0,37,0.00,,---,0.00,VWS V14.00,2014-01-19 17:57:00,
2014-01-19 09:58:00,56.8,30.9,30.06,North,0,0.0,0.0,37,0.00,,---,0.00,VWS V14.00,2014-01-19 17:58:00,
2014-01-19 10:00:00,57.4,30.7,30.06,North,0,0.0,0.0,36,0.00,,---,0.00,VWS V14.00,2014-01-19 18:00:00,
2014-01-19 10:01:00,57.7,31.0,30.06,North,0,0.0,0.0,36,0.00,,---,0.00,VWS V14.00,2014-01-19 18:01:00,
2014-01-19 10:05:00,58.8,32.0,30.06,North,0,0.0,0.0,36,0.00,,---,0.00,VWS V14.00,2014-01-19 18:05:00,
2014-01-19 10:06:00,58.8,32.0,30.06,North,0,0.0,0.0,36,0.00,,---,0.00,VWS V14.00,2014-01-19 18:06:00,
2014-01-19 10:07:00,59.0,32.1,30.06,North,0,0.0,0.0,36,0.00,,---,0.00,VWS V14.00,2014-01-19 18:07:00,
2014-01-19 10:09:00,59.4,31.7,30.06,North,0,0.0,0.0,35,0.00,,---,0.00,VWS V14.00,2014-01-19 18:09:00,
2014-01-19 10:10:00,59.7,32.0,30.06,North,0,0.0,0.0,35,0.00,,---,0.00,VWS V14.00,2014-01-19 18:10:00,
2014-01-19 10:11:00,59.9,32.2,30.06,North,0,0.0,0.0,35,0.00,,---,0.00,VWS V14.00,2014-01-19 18:11:00,
2014-01-19 10:12:00,60.1,32.4,30.06,North,0,0.0,0.0,35,0.00,,---,0.00,VWS V14.00,2014-01-19 18:12:00,
2014-01-19 10:13:00,60.3,32.5,30.03,North,0,0.0,0.0,35,0.00,,---,0.00,VWS V14.00,2014-01-19 18:13:00,
2014-01-19 10:17:00,60.6,32.1,30.03,North,0,0.0,0.0,34,0.00,,---,0.00,VWS V14.00,2014-01-19 18:17:00,
2014-01-19 10:18:00,60.4,32.0,30.03,North,0,0.0,0.0,34,0.00,,---,0.00,VWS V14.00,2014-01-19 18:18:00,
2014-01-19 10:19:00,60.6,31.4,30.03,North,0,0.0,0.0,33,0.00,,---,0.00,VWS V14.00,2014-01-19 18:19:00,
2014-01-19 10:21:00,61.0,31.7,30.03,North,0,0.0,0.0,33,0.00,,---,0.00,VWS V14.00,2014-01-19 18:21:00,
2014-01-19 10:24:00,61.2,32.6,30.03,North,0,0.0,0.0,34,0.00,,---,0.00,VWS V14.00,2014-01-19 18:24:00,
2014-01-19 10:26:00,61.7,31.6,30.03,North,0,0.0,0.0,32,0.00,,---,0.00,VWS V14.00,2014-01-19 18:26:00,
2014-01-19 10:29:00,61.5,30.6,30.03,North,0,0.0,0.0,31,0.00,,---,0.00,VWS V14.00,2014-01-19 18:29:00,
2014-01-19 10:30:00,61.7,30.8,30.03,North,0,0.0,0.0,31,0.00,,---,0.00,VWS V14.00,2014-01-19 18:30:00,
2014-01-19 10:32:00,61.5,30.6,30.03,North,0,0.0,0.0,31,0.00,,---,0.00,VWS V14.00,2014-01-19 18:32:00,
2014-01-19 10:33:00,61.5,30.6,30.03,North,0,0.0,0.0,31,0.00,,---,0.00,VWS V14.00,2014-01-19 18:33:00,
2014-01-19 10:36:00,61.9,30.9,30.03,North,0,0.0,0.0,31,0.00,,---,0.00,VWS V14.00,2014-01-19 18:36:00,
2014-01-19 10:46:00,63.0,31.9,30.03,North,0,0.0,0.0,31,0.00,,---,0.00,VWS V14.00,2014-01-19 18:46:00,
2014-01-19 10:47:00,63.1,32.0,30.03,North,0,0.0,0.0,31,0.00,,---,0.00,VWS V14.00,2014-01-19 18:47:00,
2014-01-19 10:48:00,63.3,32.2,30.03,North,0,0.0,0.0,31,0.00,,---,0.00,VWS V14.00,2014-01-19 18:48:00,
2014-01-19 10:49:00,63.5,32.3,30.03,North,0,0.0,0.0,31,0.00,,---,0.00,VWS V14.00,2014-01-19 18:49:00,
2014-01-19 10:50:00,63.7,32.5,30.03,North,0,0.0,0.0,31,0.00,,---,0.00,VWS V14.00,2014-01-19 18:50:00,
2014-01-19 10:53:00,63.9,31.9,30.03,North,0,0.0,0.0,30,0.00,,---,0.00,VWS V14.00,2014-01-19 18:53:00,
2014-01-19 10:55:00,64.0,31.2,30.03,North,0,0.0,0.0,29,0.00,,---,0.00,VWS V14.00,2014-01-19 18:55:00,
2014-01-19 10:57:00,63.5,29.8,30.03,North,0,0.0,0.0,28,0.00,,---,0.00,VWS V14.00,2014-01-19 18:57:00,
2014-01-19 10:58:00,63.5,29.8,30.03,North,0,0.0,0.0,28,0.00,,---,0.00,VWS V14.00,2014-01-19 18:58:00,
2014-01-19 10:59:00,63.5,29.8,30.03,North,0,0.0,0.0,28,0.00,,---,0.00,VWS V14.00,2014-01-19 18:59:00,
2014-01-19 11:02:00,63.5,29.8,30.03,North,0,0.0,0.0,28,0.00,,---,0.00,VWS V14.00,2014-01-19 19:02:00,
2014-01-19 11:03:00,63.7,30.9,30.03,North,0,0.0,0.0,29,0.00,,---,0.00,VWS V14.00,2014-01-19 19:03:00,
2014-01-19 11:04:00,64.0,31.2,30.03,North,0,0.0,0.0,29,0.00,,---,0.00,VWS V14.00,2014-01-19 19:04:00,
2014-01-19 11:05:00,64.0,31.2,30.03,North,0,0.0,0.0,29,0.00,,---,0.00,VWS V14.00,2014-01-19 19:05:00,
2014-01-19 11:06:00,64.2,31.3,30.03,North,0,0.0,0.0,29,0.00,,---,0.00,VWS V14.00,2014-01-19 19:06:00,
2014-01-19 11:10:00,64.4,30.6,30.03,North,0,0.0,0.0,28,0.00,,---,0.00,VWS V14.00,2014-01-19 19:10:00,
2014-01-19 11:12:00,63.7,30.0,30.03,North,0,0.0,0.0,28,0.00,,---,0.00,VWS V14.00,2014-01-19 19:12:00,
2014-01-19 11:14:00,64.0,30.3,30.03,North,0,0.0,0.0,28,0.00,,---,0.00,VWS V14.00,2014-01-19 19:14:00,
2014-01-19 11:17:00,64.0,30.3,30.03,North,0,0.0,0.0,28,0.00,,---,0.00,VWS V14.00,2014-01-19 19:17:00,
2014-01-19 11:19:00,64.2,30.5,30.03,North,0,0.0,0.0,28,0.00,,---,0.00,VWS V14.00,2014-01-19 19:19:00,
2014-01-19 11:21:00,64.4,29.7,30.03,North,0,0.0,0.0,27,0.00,,---,0.00,VWS V14.00,2014-01-19 19:21:00,
2014-01-19 11:22:00,64.4,30.6,30.03,North,0,0.0,0.0,28,0.00,,---,0.00,VWS V14.00,2014-01-19 19:22:00,
2014-01-19 11:25:00,64.0,29.4,30.03,North,0,0.0,0.0,27,0.00,,---,0.00,VWS V14.00,2014-01-19 19:25:00,
2014-01-19 11:26:00,63.9,29.3,30.03,North,0,0.0,0.0,27,0.00,,---,0.00,VWS V14.00,2014-01-19 19:26:00,
2014-01-19 11:30:00,64.0,29.4,30.00,North,0,0.0,0.0,27,0.00,,---,0.00,VWS V14.00,2014-01-19 19:30:00,
2014-01-19 11:32:00,64.2,30.5,30.00,North,0,0.0,0.0,28,0.00,,---,0.00,VWS V14.00,2014-01-19 19:32:00,
2014-01-19 11:34:00,64.2,29.6,30.00,North,0,0.0,0.0,27,0.00,,---,0.00,VWS V14.00,2014-01-19 19:34:00,
2014-01-19 11:35:00,64.2,29.6,30.00,North,0,0.0,0.0,27,0.00,,---,0.00,VWS V14.00,2014-01-19 19:35:00,
2014-01-19 11:36:00,64.2,30.5,30.00,North,0,0.0,0.0,28,0.00,,---,0.00,VWS V14.00,2014-01-19 19:36:00,
2014-01-19 11:37:00,64.2,29.6,30.00,North,0,0.0,0.0,27,0.00,,---,0.00,VWS V14.00,2014-01-19 19:37:00,
2014-01-19 11:40:00,64.4,29.7,30.00,North,0,0.0,0.0,27,0.00,,---,0.00,VWS V14.00,2014-01-19 19:40:00,
2014-01-19 11:41:00,64.6,29.9,30.00,North,0,0.0,0.0,27,0.00,,---,0.00,VWS V14.00,2014-01-19 19:41:00,
2014-01-19 11:42:00,64.6,29.9,30.00,North,0,0.0,0.0,27,0.00,,---,0.00,VWS V14.00,2014-01-19 19:42:00,
2014-01-19 11:43:00,64.6,29.9,30.00,North,0,0.0,0.0,27,0.00,,---,0.00,VWS V14.00,2014-01-19 19:43:00,
2014-01-19 11:44:00,64.8,30.0,30.00,North,0,0.0,0.0,27,0.00,,---,0.00,VWS V14.00,2014-01-19 19:44:00,
2014-01-19 11:46:00,64.8,30.0,30.00,North,0,0.0,0.0,27,0.00,,---,0.00,VWS V14.00,2014-01-19 19:46:00,
2014-01-19 11:47:00,64.8,30.0,30.00,North,0,0.0,0.0,27,0.00,,---,0.00,VWS V14.00,2014-01-19 19:47:00,
2014-01-19 11:48:00,64.8,30.0,30.00,North,0,0.0,0.0,27,0.00,,---,0.00,VWS V14.00,2014-01-19 19:48:00,
2014-01-19 11:49:00,64.8,30.0,30.00,North,0,0.0,0.0,27,0.00,,---,0.00,VWS V14.00,2014-01-19 19:49:00,
2014-01-19 11:50:00,64.9,30.2,30.00,North,0,0.0,0.0,27,0.00,,---,0.00,VWS V14.00,2014-01-19 19:50:00,
2014-01-19 11:53:00,65.3,30.5,30.00,North,0,0.0,0.0,27,0.00,,---,0.00,VWS V14.00,2014-01-19 19:53:00,
2014-01-19 11:55:00,65.3,30.5,30.00,North,0,0.0,0.0,27,0.00,,---,0.00,VWS V14.00,2014-01-19 19:55:00,
2014-01-19 11:57:00,65.3,29.6,30.00,North,0,0.0,0.0,26,0.00,,---,0.00,VWS V14.00,2014-01-19 19:57:00,
2014-01-19 12:00:00,65.7,30.8,29.97,North,0,0.0,0.0,27,0.00,,---,0.00,VWS V14.00,2014-01-19 20:00:00,
2014-01-19 12:01:00,65.7,29.9,29.97,North,0,0.0,0.0,26,0.00,,---,0.00,VWS V14.00,2014-01-19 20:01:00,
2014-01-19 12:03:00,65.8,31.0,29.97,North,0,0.0,0.0,27,0.00,,---,0.00,VWS V14.00,2014-01-19 20:03:00,
2014-01-19 12:04:00,66.2,30.3,29.97,North,0,0.0,0.0,26,0.00,,---,0.00,VWS V14.00,2014-01-19 20:04:00,
2014-01-19 12:07:00,66.7,31.7,29.97,North,0,0.0,0.0,27,0.00,,---,0.00,VWS V14.00,2014-01-19 20:07:00,
2014-01-19 12:09:00,67.5,32.3,29.97,North,0,0.0,0.0,27,0.00,,---,0.00,VWS V14.00,2014-01-19 20:09:00,
2014-01-19 12:10:00,67.6,32.5,29.97,North,0,0.0,0.0,27,0.00,,---,0.00,VWS V14.00,2014-01-19 20:10:00,
2014-01-19 12:11:00,68.0,31.9,29.97,North,0,0.0,0.0,26,0.00,,---,0.00,VWS V14.00,2014-01-19 20:11:00,
2014-01-19 12:12:00,68.4,32.2,29.97,North,0,0.0,0.0,26,0.00,,---,0.00,VWS V14.00,2014-01-19 20:12:00,
2014-01-19 12:17:00,68.7,32.5,29.97,North,0,0.0,0.0,26,0.00,,---,0.00,VWS V14.00,2014-01-19 20:17:00,
2014-01-19 12:18:00,68.9,32.6,29.97,North,0,0.0,0.0,26,0.00,,---,0.00,VWS V14.00,2014-01-19 20:18:00,
2014-01-19 12:19:00,69.1,31.8,29.97,North,0,0.0,0.0,25,0.00,,---,0.00,VWS V14.00,2014-01-19 20:19:00,
2014-01-19 12:22:00,69.4,32.1,29.97,North,0,0.0,0.0,25,0.00,,---,0.00,VWS V14.00,2014-01-19 20:22:00,
2014-01-19 12:23:00,69.6,32.3,29.97,North,0,0.0,0.0,25,0.00,,---,0.00,VWS V14.00,2014-01-19 20:23:00,
2014-01-19 12:27:00,69.8,31.4,29.97,North,0,0.0,0.0,24,0.00,,---,0.00,VWS V14.00,2014-01-19 20:27:00,
2014-01-19 12:28:00,69.8,31.4,29.97,North,0,0.0,0.0,24,0.00,,---,0.00,VWS V14.00,2014-01-19 20:28:00,
2014-01-19 12:29:00,69.8,31.4,29.97,North,0,0.0,0.0,24,0.00,,---,0.00,VWS V14.00,2014-01-19 20:29:00,
2014-01-19 12:30:00,69.6,31.3,29.97,North,0,0.0,0.0,24,0.00,,---,0.00,VWS V14.00,2014-01-19 20:30:00,
2014-01-19 12:31:00,69.4,31.1,29.97,North,0,0.0,0.0,24,0.00,,---,0.00,VWS V14.00,2014-01-19 20:31:00,
2014-01-19 12:33:00,69.3,31.0,29.97,North,0,0.0,0.0,24,0.00,,---,0.00,VWS V14.00,2014-01-19 20:33:00,
2014-01-19 12:35:00,69.1,30.8,29.97,North,0,0.0,0.0,24,0.00,,---,0.00,VWS V14.00,2014-01-19 20:35:00,
2014-01-19 12:37:00,68.9,30.6,29.97,North,0,0.0,0.0,24,0.00,,---,0.00,VWS V14.00,2014-01-19 20:37:00,
2014-01-19 12:39:00,68.7,30.5,29.97,North,0,0.0,0.0,24,0.00,,---,0.00,VWS V14.00,2014-01-19 20:39:00,
2014-01-19 12:40:00,68.7,30.5,29.97,North,0,0.0,0.0,24,0.00,,---,0.00,VWS V14.00,2014-01-19 20:40:00,
2014-01-19 12:42:00,68.5,29.3,29.94,North,0,0.0,0.0,23,0.00,,---,0.00,VWS V14.00,2014-01-19 20:42:00,
2014-01-19 12:46:00,68.7,30.5,29.94,North,0,0.0,0.0,24,0.00,,---,0.00,VWS V14.00,2014-01-19 20:46:00,
2014-01-19 12:48:00,68.7,30.5,29.94,North,0,0.0,0.0,24,0.00,,---,0.00,VWS V14.00,2014-01-19 20:48:00,
2014-01-19 12:49:00,68.9,30.6,29.94,North,0,0.0,0.0,24,0.00,,---,0.00,VWS V14.00,2014-01-19 20:49:00,
2014-01-19 12:50:00,69.1,30.8,29.94,North,0,0.0,0.0,24,0.00,,---,0.00,VWS V14.00,2014-01-19 20:50:00,
2014-01-19 12:53:00,69.4,31.1,29.94,North,0,0.0,0.0,24,0.00,,---,0.00,VWS V14.00,2014-01-19 20:53:00,
2014-01-19 12:54:00,69.6,31.3,29.94,North,0,0.0,0.0,24,0.00,,---,0.00,VWS V14.00,2014-01-19 20:54:00,
2014-01-19 12:59:00,70.0,30.5,29.94,North,0,0.0,0.0,23,0.00,,---,0.00,VWS V14.00,2014-01-19 20:59:00,
2014-01-19 13:00:00,70.0,30.5,29.94,North,0,0.0,0.0,23,0.00,,---,0.00,VWS V14.00,2014-01-19 21:00:00,
2014-01-19 13:04:00,70.5,31.0,29.94,North,0,0.0,0.0,23,0.00,,---,0.00,VWS V14.00,2014-01-19 21:04:00,
2014-01-19 13:05:00,70.9,31.3,29.94,North,0,0.0,0.0,23,0.00,,---,0.00,VWS V14.00,2014-01-19 21:05:00,
2014-01-19 13:06:00,70.9,31.3,29.94,North,0,0.0,0.0,23,0.00,,---,0.00,VWS V14.00,2014-01-19 21:06:00,
2014-01-19 13:08:00,70.9,31.3,29.94,North,0,0.0,0.0,23,0.00,,---,0.00,VWS V14.00,2014-01-19 21:08:00,
2014-01-19 13:09:00,70.9,31.3,29.94,North,0,0.0,0.0,23,0.00,,---,0.00,VWS V14.00,2014-01-19 21:09:00,
2014-01-19 13:11:00,71.1,31.4,29.94,North,0,0.0,0.0,23,0.00,,---,0.00,VWS V14.00,2014-01-19 21:11:00,
2014-01-19 13:13:00,71.2,31.6,29.94,North,0,0.0,0.0,23,0.00,,---,0.00,VWS V14.00,2014-01-19 21:13:00,
2014-01-19 13:14:00,71.4,31.7,29.94,North,0,0.0,0.0,23,0.00,,---,0.00,VWS V14.00,2014-01-19 21:14:00,
2014-01-19 13:15:00,71.4,31.7,29.94,North,0,0.0,0.0,23,0.00,,---,0.00,VWS V14.00,2014-01-19 21:15:00,
2014-01-19 13:16:00,71.4,31.7,29.94,North,0,0.0,0.0,23,0.00,,---,0.00,VWS V14.00,2014-01-19 21:16:00,
2014-01-19 13:18:00,71.4,31.7,29.94,North,0,0.0,0.0,23,0.00,,---,0.00,VWS V14.00,2014-01-19 21:18:00,
2014-01-19 13:20:00,71.2,31.6,29.94,North,0,0.0,0.0,23,0.00,,---,0.00,VWS V14.00,2014-01-19 21:20:00,
2014-01-19 13:21:00,71.1,31.4,29.94,North,0,0.0,0.0,23,0.00,,---,0.00,VWS V14.00,2014-01-19 21:21:00,
2014-01-19 13:23:00,71.1,31.4,29.94,North,0,0.0,0.0,23,0.00,,---,0.00,VWS V14.00,2014-01-19 21:23:00,
2014-01-19 13:27:00,71.1,31.4,29.94,North,0,0.0,0.0,23,0.00,,---,0.00,VWS V14.00,2014-01-19 21:27:00,
2014-01-19 13:28:00,70.9,30.2,29.94,North,0,0.0,0.0,22,0.00,,---,0.00,VWS V14.00,2014-01-19 21:28:00,
2014-01-19 13:29:00,70.7,31.1,29.94,North,0,0.0,0.0,23,0.00,,---,0.00,VWS V14.00,2014-01-19 21:29:00,
2014-01-19 13:30:00,70.5,31.0,29.94,North,0,0.0,0.0,23,0.00,,---,0.00,VWS V14.00,2014-01-19 21:30:00,
2014-01-19 13:32:00,70.7,31.1,29.94,North,0,0.0,0.0,23,0.00,,---,0.00,VWS V14.00,2014-01-19 21:32:00,
2014-01-19 13:33:00,70.7,31.1,29.94,North,0,0.0,0.0,23,0.00,,---,0.00,VWS V14.00,2014-01-19 21:33:00,
2014-01-19 13:36:00,70.9,31.3,29.94,North,0,0.0,0.0,23,0.00,,---,0.00,VWS V14.00,2014-01-19 21:36:00,
2014-01-19 13:38:00,70.9,31.3,29.94,North,0,0.0,0.0,23,0.00,,---,0.00,VWS V14.00,2014-01-19 21:38:00,
2014-01-19 13:40:00,71.1,31.4,29.94,North,0,0.0,0.0,23,0.00,,---,0.00,VWS V14.00,2014-01-19 21:40:00,
2014-01-19 13:41:00,71.1,31.4,29.94,North,0,0.0,0.0,23,0.00,,---,0.00,VWS V14.00,2014-01-19 21:41:00,
2014-01-19 13:42:00,71.2,31.6,29.94,North,0,0.0,0.0,23,0.00,,---,0.00,VWS V14.00,2014-01-19 21:42:00,
2014-01-19 13:43:00,71.4,31.7,29.91,North,0,0.0,0.0,23,0.00,,---,0.00,VWS V14.00,2014-01-19 21:43:00,
2014-01-19 13:45:00,71.8,30.9,29.91,North,0,0.0,0.0,22,0.00,,---,0.00,VWS V14.00,2014-01-19 21:45:00,
2014-01-19 13:46:00,71.8,30.9,29.91,North,0,0.0,0.0,22,0.00,,---,0.00,VWS V14.00,2014-01-19 21:46:00,
2014-01-19 13:47:00,72.3,31.4,29.91,North,0,0.0,0.0,22,0.00,,---,0.00,VWS V14.00,2014-01-19 21:47:00,
2014-01-19 13:48:00,72.5,31.5,29.91,North,0,0.0,0.0,22,0.00,,---,0.00,VWS V14.00,2014-01-19 21:48:00,
2014-01-19 13:50:00,72.7,31.7,29.91,North,0,0.0,0.0,22,0.00,,---,0.00,VWS V14.00,2014-01-19 21:50:00,
2014-01-19 13:52:00,72.7,31.7,29.91,North,0,0.0,0.0,22,0.00,,---,0.00,VWS V14.00,2014-01-19 21:52:00,
2014-01-19 13:53:00,72.9,31.8,29.91,North,0,0.0,0.0,22,0.00,,---,0.00,VWS V14.00,2014-01-19 21:53:00,
2014-01-19 13:55:00,72.7,31.7,29.91,North,0,0.0,0.0,22,0.00,,---,0.00,VWS V14.00,2014-01-19 21:55:00,
2014-01-19 13:57:00,72.9,31.8,29.91,North,0,0.0,0.0,22,0.00,,---,0.00,VWS V14.00,2014-01-19 21:57:00,
2014-01-19 13:58:00,73.0,32.0,29.91,North,0,0.0,0.0,22,0.00,,---,0.00,VWS V14.00,2014-01-19 21:58:00,
2014-01-19 13:59:00,73.4,31.1,29.91,North,0,0.0,0.0,21,0.00,,---,0.00,VWS V14.00,2014-01-19 21:59:00,
2014-01-19 14:00:00,73.6,31.3,29.91,North,0,0.0,0.0,21,0.00,,---,0.00,VWS V14.00,2014-01-19 22:00:00,
2014-01-19 14:02:00,73.8,31.4,29.91,North,0,0.0,0.0,21,0.00,,---,0.00,VWS V14.00,2014-01-19 22:02:00,
2014-01-19 14:03:00,73.8,31.4,29.91,North,0,0.0,0.0,21,0.00,,---,0.00,VWS V14.00,2014-01-19 22:03:00,
2014-01-19 14:04:00,73.8,31.4,29.91,North,0,0.0,0.0,21,0.00,,---,0.00,VWS V14.00,2014-01-19 22:04:00,
2014-01-19 14:06:00,74.1,31.7,29.91,North,0,0.0,0.0,21,0.00,,---,0.00,VWS V14.00,2014-01-19 22:06:00,
2014-01-19 14:08:00,74.3,31.9,29.91,North,0,0.0,0.0,21,0.00,,---,0.00,VWS V14.00,2014-01-19 22:08:00,
2014-01-19 14:10:00,74.5,32.0,29.91,North,0,0.0,0.0,21,0.00,,---,0.00,VWS V14.00,2014-01-19 22:10:00,
2014-01-19 14:12:00,74.8,32.3,29.91,North,0,0.0,0.0,21,0.00,,---,0.00,VWS V14.00,2014-01-19 22:12:00,
2014-01-19 14:13:00,74.8,32.3,29.91,North,0,0.0,0.0,21,0.00,,---,0.00,VWS V14.00,2014-01-19 22:13:00,
2014-01-19 14:14:00,74.7,32.2,29.91,North,0,0.0,0.0,21,0.00,,---,0.00,VWS V14.00,2014-01-19 22:14:00,
2014-01-19 14:15:00,74.5,32.0,29.91,North,0,0.0,0.0,21,0.00,,---,0.00,VWS V14.00,2014-01-19 22:15:00,
2014-01-19 14:17:00,74.5,32.0,29.91,North,0,0.0,0.0,21,0.00,,---,0.00,VWS V14.00,2014-01-19 22:17:00,
2014-01-19 14:19:00,74.8,32.3,29.91,North,0,0.0,0.0,21,0.00,,---,0.00,VWS V14.00,2014-01-19 22:19:00,
2014-01-19 14:20:00,74.7,32.2,29.91,North,0,0.0,0.0,21,0.00,,---,0.00,VWS V14.00,2014-01-19 22:20:00,
2014-01-19 14:22:00,75.4,31.6,29.91,North,0,0.0,0.0,20,0.00,,---,0.00,VWS V14.00,2014-01-19 22:22:00,
2014-01-19 14:26:00,75.0,32.5,29.91,North,0,0.0,0.0,21,0.00,,---,0.00,VWS V14.00,2014-01-19 22:26:00,
2014-01-19 14:27:00,75.0,32.5,29.91,North,0,0.0,0.0,21,0.00,,---,0.00,VWS V14.00,2014-01-19 22:27:00,
2014-01-19 14:29:00,74.8,32.3,29.91,North,0,0.0,0.0,21,0.00,,---,0.00,VWS V14.00,2014-01-19 22:29:00,
2014-01-19 14:30:00,74.8,32.3,29.91,North,0,0.0,0.0,21,0.00,,---,0.00,VWS V14.00,2014-01-19 22:30:00,
2014-01-19 14:35:00,75.6,31.7,29.91,North,0,0.0,0.0,20,0.00,,---,0.00,VWS V14.00,2014-01-19 22:35:00,
2014-01-19 14:36:00,75.6,31.7,29.91,North,0,0.0,0.0,20,0.00,,---,0.00,VWS V14.00,2014-01-19 22:36:00,
2014-01-19 14:38:00,76.1,32.2,29.91,North,0,0.0,0.0,20,0.00,,---,0.00,VWS V14.00,2014-01-19 22:38:00,
2014-01-19 14:39:00,76.1,32.2,29.91,North,0,0.0,0.0,20,0.00,,---,0.00,VWS V14.00,2014-01-19 22:39:00,
2014-01-19 14:40:00,76.1,32.2,29.91,North,0,0.0,0.0,20,0.00,,---,0.00,VWS V14.00,2014-01-19 22:40:00,
2014-01-19 14:41:00,76.3,32.3,29.91,North,0,0.0,0.0,20,0.00,,---,0.00,VWS V14.00,2014-01-19 22:41:00,
2014-01-19 14:45:00,76.3,32.3,29.91,North,0,0.0,0.0,20,0.00,,---,0.00,VWS V14.00,2014-01-19 22:45:00,
2014-01-19 14:46:00,76.5,32.5,29.91,North,0,0.0,0.0,20,0.00,,---,0.00,VWS V14.00,2014-01-19 22:46:00,
2014-01-19 14:47:00,76.5,32.5,29.91,North,0,0.0,0.0,20,0.00,,---,0.00,VWS V14.00,2014-01-19 22:47:00,
2014-01-19 14:49:00,76.3,32.3,29.91,North,0,0.0,0.0,20,0.00,,---,0.00,VWS V14.00,2014-01-19 22:49:00,
2014-01-19 14:50:00,76.3,32.3,29.91,North,0,0.0,0.0,20,0.00,,---,0.00,VWS V14.00,2014-01-19 22:50:00,
2014-01-19 14:51:00,76.3,32.3,29.91,North,0,0.0,0.0,20,0.00,,---,0.00,VWS V14.00,2014-01-19 22:51:00,
2014-01-19 14:52:00,76.5,32.5,29.91,North,0,0.0,0.0,20,0.00,,---,0.00,VWS V14.00,2014-01-19 22:52:00,
2014-01-19 14:53:00,76.3,32.3,29.91,North,0,0.0,0.0,20,0.00,,---,0.00,VWS V14.00,2014-01-19 22:53:00,
2014-01-19 14:58:00,76.3,32.3,29.88,North,0,0.0,0.0,20,0.00,,---,0.00,VWS V14.00,2014-01-19 22:58:00,
2014-01-19 14:59:00,76.1,32.2,29.88,North,0,0.0,0.0,20,0.00,,---,0.00,VWS V14.00,2014-01-19 22:59:00,
2014-01-19 15:00:00,76.1,32.2,29.88,North,0,0.0,0.0,20,0.00,,---,0.00,VWS V14.00,2014-01-19 23:00:00,
2014-01-19 15:01:00,76.3,32.3,29.88,North,0,0.0,0.0,20,0.00,,---,0.00,VWS V14.00,2014-01-19 23:01:00,
2014-01-19 15:05:00,76.3,32.3,29.88,North,0,0.0,0.0,20,0.00,,---,0.00,VWS V14.00,2014-01-19 23:05:00,
2014-01-19 15:06:00,76.1,32.2,29.88,North,0,0.0,0.0,20,0.00,,---,0.00,VWS V14.00,2014-01-19 23:06:00,
2014-01-19 15:07:00,75.7,31.9,29.88,North,0,0.0,0.0,20,0.00,,---,0.00,VWS V14.00,2014-01-19 23:07:00,
2014-01-19 15:09:00,75.4,31.6,29.88,North,0,0.0,0.0,20,0.00,,---,0.00,VWS V14.00,2014-01-19 23:09:00,
2014-01-19 15:12:00,75.4,31.6,29.88,North,0,0.0,0.0,20,0.00,,---,0.00,VWS V14.00,2014-01-19 23:12:00,
2014-01-19 15:15:00,74.8,28.5,29.88,North,0,0.0,0.0,18,0.00,,---,0.00,VWS V14.00,2014-01-19 23:15:00,
2014-01-19 15:17:00,74.8,32.3,29.88,North,0,0.0,0.0,21,0.00,,---,0.00,VWS V14.00,2014-01-19 23:17:00,
2014-01-19 15:19:00,74.1,27.9,29.88,North,0,0.0,0.0,18,0.00,,---,0.00,VWS V14.00,2014-01-19 23:19:00,
2014-01-19 15:20:00,73.9,27.8,29.88,North,0,0.0,0.0,18,0.00,,---,0.00,VWS V14.00,2014-01-19 23:20:00,
2014-01-19 15:22:00,73.8,27.6,29.88,North,0,0.0,0.0,18,0.00,,---,0.00,VWS V14.00,2014-01-19 23:22:00,
2014-01-19 15:24:00,73.8,27.6,29.88,North,0,0.0,0.0,18,0.00,,---,0.00,VWS V14.00,2014-01-19 23:24:00,
2014-01-19 15:27:00,73.9,31.6,29.88,North,0,0.0,0.0,21,0.00,,---,0.00,VWS V14.00,2014-01-19 23:27:00,
2014-01-19 15:28:00,73.9,31.6,29.88,North,0,0.0,0.0,21,0.00,,---,0.00,VWS V14.00,2014-01-19 23:28:00,
2014-01-19 15:31:00,73.8,31.4,29.88,North,0,0.0,0.0,21,0.00,,---,0.00,VWS V14.00,2014-01-19 23:31:00,
2014-01-19 15:33:00,73.8,31.4,29.88,North,0,0.0,0.0,21,0.00,,---,0.00,VWS V14.00,2014-01-19 23:33:00,
2014-01-19 15:34:00,73.8,31.4,29.88,North,0,0.0,0.0,21,0.00,,---,0.00,VWS V14.00,2014-01-19 23:34:00,
2014-01-19 15:35:00,73.8,31.4,29.88,North,0,0.0,0.0,21,0.00,,---,0.00,VWS V14.00,2014-01-19 23:35:00,
2014-01-19 15:36:00,73.8,31.4,29.88,North,0,0.0,0.0,21,0.00,,---,0.00,VWS V14.00,2014-01-19 23:36:00,
2014-01-19 15:39:00,72.9,30.7,29.88,North,0,0.0,0.0,21,0.00,,---,0.00,VWS V14.00,2014-01-19 23:39:00,
2014-01-19 15:43:00,72.5,30.4,29.88,North,0,0.0,0.0,21,0.00,,---,0.00,VWS V14.00,2014-01-19 23:43:00,
2014-01-19 15:44:00,72.3,27.8,29.88,North,0,0.0,0.0,19,0.00,,---,0.00,VWS V14.00,2014-01-19 23:44:00,
2014-01-19 15:45:00,72.1,30.1,29.88,North,0,0.0,0.0,21,0.00,,---,0.00,VWS V14.00,2014-01-19 23:45:00,
2014-01-19 15:46:00,72.1,30.1,29.88,North,0,0.0,0.0,21,0.00,,---,0.00,VWS V14.00,2014-01-19 23:46:00,
2014-01-19 15:48:00,72.1,30.1,29.88,North,0,0.0,0.0,21,0.00,,---,0.00,VWS V14.00,2014-01-19 23:48:00,
2014-01-19 15:50:00,72.0,29.9,29.88,North,0,0.0,0.0,21,0.00,,---,0.00,VWS V14.00,2014-01-19 23:50:00,
2014-01-19 15:51:00,71.8,29.8,29.88,North,0,0.0,0.0,21,0.00,,---,0.00,VWS V14.00,2014-01-19 23:51:00,
2014-01-19 15:54:00,71.6,29.6,29.88,North,0,0.0,0.0,21,0.00,,---,0.00,VWS V14.00,2014-01-19 23:54:00,
2014-01-19 15:55:00,71.4,30.6,29.88,North,0,0.0,0.0,22,0.00,,---,0.00,VWS V14.00,2014-01-19 23:55:00,
2014-01-19 15:56:00,71.2,30.5,29.88,North,0,0.0,0.0,22,0.00,,---,0.00,VWS V14.00,2014-01-19 23:56:00,
2014-01-19 15:58:00,71.2,30.5,29.88,North,0,0.0,0.0,22,0.00,,---,0.00,VWS V14.00,2014-01-19 23:58:00,
2014-01-19 15:59:00,71.2,30.5,29.88,North,0,0.0,0.0,22,0.00,,---,0.00,VWS V14.00,2014-01-19 23:59:00,
2014-01-19 16:01:00,71.1,30.3,29.88,North,0,0.0,0.0,22,0.00,,---,0.00,VWS V14.00,2014-01-20 00:01:00,
2014-01-19 16:02:00,71.1,30.3,29.88,North,0,0.0,0.0,22,0.00,,---,0.00,VWS V14.00,2014-01-20 00:02:00,
2014-01-19 16:04:00,71.2,30.5,29.88,North,0,0.0,0.0,22,0.00,,---,0.00,VWS V14.00,2014-01-20 00:04:00,
2014-01-19 16:05:00,71.2,30.5,29.88,North,0,0.0,0.0,22,0.00,,---,0.00,VWS V14.00,2014-01-20 00:05:00,
2014-01-19 16:08:00,71.1,30.3,29.88,North,0,0.0,0.0,22,0.00,,---,0.00,VWS V14.00,2014-01-20 00:08:00,
2014-01-19 16:10:00,70.9,30.2,29.88,North,0,0.0,0.0,22,0.00,,---,0.00,VWS V14.00,2014-01-20 00:10:00,
2014-01-19 16:11:00,70.9,30.2,29.88,North,0,0.0,0.0,22,0.00,,---,0.00,VWS V14.00,2014-01-20 00:11:00,
2014-01-19 16:13:00,70.5,29.9,29.88,North,0,0.0,0.0,22,0.00,,---,0.00,VWS V14.00,2014-01-20 00:13:00,
2014-01-19 16:16:00,70.2,29.6,29.88,North,0,0.0,0.0,22,0.00,,---,0.00,VWS V14.00,2014-01-20 00:16:00,
2014-01-19 16:17:00,70.2,29.6,29.88,North,0,0.0,0.0,22,0.00,,---,0.00,VWS V14.00,2014-01-20 00:17:00,
2014-01-19 16:20:00,69.6,29.1,29.88,North,0,0.0,0.0,22,0.00,,---,0.00,VWS V14.00,2014-01-20 00:20:00,
2014-01-19 16:21:00,69.6,29.1,29.88,North,0,0.0,0.0,22,0.00,,---,0.00,VWS V14.00,2014-01-20 00:21:00,
2014-01-19 16:23:00,69.3,28.8,29.88,North,0,0.0,0.0,22,0.00,,---,0.00,VWS V14.00,2014-01-20 00:23:00,
2014-01-19 16:27:00,68.7,28.4,29.88,North,0,0.0,0.0,22,0.00,,---,0.00,VWS V14.00,2014-01-20 00:27:00,
2014-01-19 16:28:00,68.4,28.1,29.88,North,0,0.0,0.0,22,0.00,,---,0.00,VWS V14.00,2014-01-20 00:28:00,
2014-01-19 16:31:00,68.0,27.8,29.88,North,0,0.0,0.0,22,0.00,,---,0.00,VWS V14.00,2014-01-20 00:31:00,
2014-01-19 16:33:00,67.6,27.5,29.88,North,0,0.0,0.0,22,0.00,,---,0.00,VWS V14.00,2014-01-20 00:33:00,
2014-01-19 16:34:00,67.6,27.5,29.88,North,0,0.0,0.0,22,0.00,,---,0.00,VWS V14.00,2014-01-20 00:34:00,
2014-01-19 16:35:00,67.5,27.3,29.88,North,0,0.0,0.0,22,0.00,,---,0.00,VWS V14.00,2014-01-20 00:35:00,
2014-01-19 16:36:00,67.3,27.2,29.88,North,0,0.0,0.0,22,0.00,,---,0.00,VWS V14.00,2014-01-20 00:36:00,
2014-01-19 16:38:00,66.9,26.9,29.88,North,0,0.0,0.0,22,0.00,,---,0.00,VWS V14.00,2014-01-20 00:38:00,
2014-01-19 16:40:00,66.4,26.4,29.88,North,0,0.0,0.0,22,0.00,,---,0.00,VWS V14.00,2014-01-20 00:40:00,
2014-01-19 16:43:00,66.2,26.3,29.88,North,0,0.0,0.0,22,0.00,,---,0.00,VWS V14.00,2014-01-20 00:43:00,
2014-01-19 16:44:00,66.0,27.2,29.88,North,0,0.0,0.0,23,0.00,,---,0.00,VWS V14.00,2014-01-20 00:44:00,
2014-01-19 16:45:00,65.7,26.9,29.88,North,0,0.0,0.0,23,0.00,,---,0.00,VWS V14.00,2014-01-20 00:45:00,
2014-01-19 16:48:00,65.3,26.6,29.88,North,0,0.0,0.0,23,0.00,,---,0.00,VWS V14.00,2014-01-20 00:48:00,
2014-01-19 16:49:00,65.3,26.6,29.88,North,0,0.0,0.0,23,0.00,,---,0.00,VWS V14.00,2014-01-20 00:49:00,
2014-01-19 16:50:00,65.1,26.4,29.88,North,0,0.0,0.0,23,0.00,,---,0.00,VWS V14.00,2014-01-20 00:50:00,
2014-01-19 16:51:00,65.1,26.4,29.88,North,0,0.0,0.0,23,0.00,,---,0.00,VWS V14.00,2014-01-20 00:51:00,
2014-01-19 16:56:00,64.2,25.7,29.88,North,0,0.0,0.0,23,0.00,,---,0.00,VWS V14.00,2014-01-20 00:56:00,
2014-01-19 16:57:00,64.2,25.7,29.88,North,0,0.0,0.0,23,0.00,,---,0.00,VWS V14.00,2014-01-20 00:57:00,
2014-01-19 16:58:00,64.0,25.5,29.88,North,0,0.0,0.0,23,0.00,,---,0.00,VWS V14.00,2014-01-20 00:58:00,
2014-01-19 16:59:00,63.9,25.4,29.88,North,0,0.0,0.0,23,0.00,,---,0.00,VWS V14.00,2014-01-20 00:59:00,
2014-01-19 17:02:00,63.1,24.8,29.88,North,0,0.0,0.0,23,0.00,,---,0.00,VWS V14.00,2014-01-20 01:02:00,
2014-01-19 17:03:00,63.0,24.6,29.88,North,0,0.0,0.0,23,0.00,,---,0.00,VWS V14.00,2014-01-20 01:03:00,
2014-01-19 17:04:00,62.8,24.5,29.88,North,0,0.0,0.0,23,0.00,,---,0.00,VWS V14.00,2014-01-20 01:04:00,
2014-01-19 17:06:00,62.4,25.2,29.88,North,0,0.0,0.0,24,0.00,,---,0.00,VWS V14.00,2014-01-20 01:06:00,
2014-01-19 17:08:00,61.7,24.6,29.88,North,0,0.0,0.0,24,0.00,,---,0.00,VWS V14.00,2014-01-20 01:08:00,
2014-01-19 17:09:00,61.5,24.4,29.88,North,0,0.0,0.0,24,0.00,,---,0.00,VWS V14.00,2014-01-20 01:09:00,
2014-01-19 17:10:00,61.3,24.3,29.88,North,0,0.0,0.0,24,0.00,,---,0.00,VWS V14.00,2014-01-20 01:10:00,
2014-01-19 17:12:00,61.0,24.0,29.88,North,0,0.0,0.0,24,0.00,,---,0.00,VWS V14.00,2014-01-20 01:12:00,
2014-01-19 17:13:00,60.6,23.6,29.88,North,0,0.0,0.0,24,0.00,,---,0.00,VWS V14.00,2014-01-20 01:13:00,
2014-01-19 17:15:00,60.1,23.2,29.88,North,0,0.0,0.0,24,0.00,,---,0.00,VWS V14.00,2014-01-20 01:15:00,
2014-01-19 17:16:00,60.1,23.2,29.88,North,0,0.0,0.0,24,0.00,,---,0.00,VWS V14.00,2014-01-20 01:16:00,
2014-01-19 17:17:00,59.9,23.0,29.88,North,0,0.0,0.0,24,0.00,,---,0.00,VWS V14.00,2014-01-20 01:17:00,
2014-01-19 17:18:00,59.7,22.9,29.88,North,0,0.0,0.0,24,0.00,,---,0.00,VWS V14.00,2014-01-20 01:18:00,
2014-01-19 17:20:00,59.4,22.6,29.88,North,0,0.0,0.0,24,0.00,,---,0.00,VWS V14.00,2014-01-20 01:20:00,
2014-01-19 17:22:00,59.0,23.2,29.88,North,0,0.0,0.0,25,0.00,,---,0.00,VWS V14.00,2014-01-20 01:22:00,
2014-01-19 17:24:00,58.5,22.8,29.88,North,0,0.0,0.0,25,0.00,,---,0.00,VWS V14.00,2014-01-20 01:24:00,
2014-01-19 17:25:00,58.5,22.8,29.88,North,0,0.0,0.0,25,0.00,,---,0.00,VWS V14.00,2014-01-20 01:25:00,
2014-01-19 17:28:00,57.9,22.3,29.91,North,0,0.0,0.0,25,0.00,,---,0.00,VWS V14.00,2014-01-20 01:28:00,
2014-01-19 17:29:00,57.7,22.2,29.91,North,0,0.0,0.0,25,0.00,,---,0.00,VWS V14.00,2014-01-20 01:29:00,
2014-01-19 17:30:00,57.4,21.9,29.91,North,0,0.0,0.0,25,0.00,,---,0.00,VWS V14.00,2014-01-20 01:30:00,
2014-01-19 17:32:00,57.2,21.7,29.91,North,0,0.0,0.0,25,0.00,,---,0.00,VWS V14.00,2014-01-20 01:32:00,
2014-01-19 17:33:00,56.8,21.4,29.91,North,0,0.0,0.0,25,0.00,,---,0.00,VWS V14.00,2014-01-20 01:33:00,
2014-01-19 17:35:00,56.7,22.2,29.91,North,0,0.0,0.0,26,0.00,,---,0.00,VWS V14.00,2014-01-20 01:35:00,
2014-01-19 17:38:00,55.9,21.6,29.91,North,0,0.0,0.0,26,0.00,,---,0.00,VWS V14.00,2014-01-20 01:38:00,
2014-01-19 17:39:00,55.8,21.4,29.91,North,0,0.0,0.0,26,0.00,,---,0.00,VWS V14.00,2014-01-20 01:39:00,
2014-01-19 17:40:00,55.6,21.3,29.91,North,0,0.0,0.0,26,0.00,,---,0.00,VWS V14.00,2014-01-20 01:40:00,
2014-01-19 17:41:00,55.6,21.3,29.91,North,0,0.0,0.0,26,0.00,,---,0.00,VWS V14.00,2014-01-20 01:41:00,
2014-01-19 17:45:00,54.9,20.6,29.91,North,0,0.0,0.0,26,0.00,,---,0.00,VWS V14.00,2014-01-20 01:45:00,
2014-01-19 17:46:00,54.5,20.3,29.91,North,0,0.0,0.0,26,0.00,,---,0.00,VWS V14.00,2014-01-20 01:46:00,
2014-01-19 17:47:00,54.5,21.2,29.91,North,0,0.0,0.0,27,0.00,,---,0.00,VWS V14.00,2014-01-20 01:47:00,
2014-01-19 17:49:00,54.3,21.1,29.91,North,0,0.0,0.0,27,0.00,,---,0.00,VWS V14.00,2014-01-20 01:49:00,
2014-01-19 17:51:00,54.0,20.8,29.91,North,0,0.0,0.0,27,0.00,,---,0.00,VWS V14.00,2014-01-20 01:51:00,
2014-01-19 17:55:00,53.4,21.1,29.91,North,0,0.0,0.0,28,0.00,,---,0.00,VWS V14.00,2014-01-20 01:55:00,
2014-01-19 17:56:00,53.2,21.0,29.91,North,0,0.0,0.0,28,0.00,,---,0.00,VWS V14.00,2014-01-20 01:56:00,
2014-01-19 17:58:00,52.9,20.7,29.91,North,0,0.0,0.0,28,0.00,,---,0.00,VWS V14.00,2014-01-20 01:58:00,
2014-01-19 18:00:00,52.7,21.4,29.91,North,0,0.0,0.0,29,0.00,,---,0.00,VWS V14.00,2014-01-20 02:00:00,
2014-01-19 18:01:00,52.3,21.0,29.91,North,0,0.0,0.0,29,0.00,,---,0.00,VWS V14.00,2014-01-20 02:01:00,
2014-01-19 18:03:00,52.2,20.9,29.91,North,0,0.0,0.0,29,0.00,,---,0.00,VWS V14.00,2014-01-20 02:03:00,
2014-01-19 18:05:00,52.0,20.7,29.91,North,0,0.0,0.0,29,0.00,,---,0.00,VWS V14.00,2014-01-20 02:05:00,
2014-01-19 18:06:00,52.0,21.5,29.91,North,0,0.0,0.0,30,0.00,,---,0.00,VWS V14.00,2014-01-20 02:06:00,
2014-01-19 18:08:00,51.6,21.2,29.91,North,0,0.0,0.0,30,0.00,,---,0.00,VWS V14.00,2014-01-20 02:08:00,
2014-01-19 18:11:00,51.1,21.5,29.91,North,0,0.0,0.0,31,0.00,,---,0.00,VWS V14.00,2014-01-20 02:11:00,
2014-01-19 18:13:00,50.9,21.4,29.91,North,0,0.0,0.0,31,0.00,,---,0.00,VWS V14.00,2014-01-20 02:13:00,
2014-01-19 18:14:00,50.9,21.4,29.91,North,0,0.0,0.0,31,0.00,,---,0.00,VWS V14.00,2014-01-20 02:14:00,
2014-01-19 18:17:00,50.5,21.8,29.91,North,0,0.0,0.0,32,0.00,,---,0.00,VWS V14.00,2014-01-20 02:17:00,
2014-01-19 18:19:00,50.4,21.6,29.91,North,0,0.0,0.0,32,0.00,,---,0.00,VWS V14.00,2014-01-20 02:19:00,
2014-01-19 18:20:00,50.2,22.2,29.91,North,0,0.0,0.0,33,0.00,,---,0.00,VWS V14.00,2014-01-20 02:20:00,
2014-01-19 18:25:00,49.6,23.1,29.91,North,0,0.0,0.0,35,0.00,,---,0.00,VWS V14.00,2014-01-20 02:25:00,
2014-01-19 18:28:00,49.5,23.6,29.94,North,0,0.0,0.0,36,0.00,,---,0.00,VWS V14.00,2014-01-20 02:28:00,
2014-01-19 18:29:00,49.3,23.5,29.94,North,0,0.0,0.0,36,0.00,,---,0.00,VWS V14.00,2014-01-20 02:29:00,
2014-01-19 18:30:00,49.3,24.1,29.94,North,0,0.0,0.0,37,0.00,,---,0.00,VWS V14.00,2014-01-20 02:30:00,
2014-01-19 18:34:00,48.7,23.6,29.94,North,0,0.0,0.0,37,0.00,,---,0.00,VWS V14.00,2014-01-20 02:34:00,
2014-01-19 18:35:00,48.7,23.6,29.94,North,0,0.0,0.0,37,0.00,,---,0.00,VWS V14.00,2014-01-20 02:35:00,
2014-01-19 18:36:00,48.6,23.5,29.94,North,0,0.0,0.0,37,0.00,,---,0.00,VWS V14.00,2014-01-20 02:36:00,
2014-01-19 18:38:00,48.4,23.3,29.94,North,0,0.0,0.0,37,0.00,,---,0.00,VWS V14.00,2014-01-20 02:38:00,
2014-01-19 18:40:00,48.2,23.8,29.94,North,0,0.0,0.0,38,0.00,,---,0.00,VWS V14.00,2014-01-20 02:40:00,
2014-01-19 18:41:00,48.0,23.6,29.94,North,0,0.0,0.0,38,0.00,,---,0.00,VWS V14.00,2014-01-20 02:41:00,
2014-01-19 18:43:00,47.8,23.5,29.94,North,0,0.0,0.0,38,0.00,,---,0.00,VWS V14.00,2014-01-20 02:43:00,
2014-01-19 18:45:00,47.8,23.5,29.94,North,0,0.0,0.0,38,0.00,,---,0.00,VWS V14.00,2014-01-20 02:45:00,
2014-01-19 18:46:00,47.7,23.3,29.94,North,0,0.0,0.0,38,0.00,,---,0.00,VWS V14.00,2014-01-20 02:46:00,
2014-01-19 18:47:00,47.7,23.3,29.94,North,0,0.0,0.0,38,0.00,,---,0.00,VWS V14.00,2014-01-20 02:47:00,
2014-01-19 18:50:00,47.5,23.8,29.94,North,0,0.0,0.0,39,0.00,,---,0.00,VWS V14.00,2014-01-20 02:50:00,
2014-01-19 18:51:00,47.5,23.8,29.94,North,0,0.0,0.0,39,0.00,,---,0.00,VWS V14.00,2014-01-20 02:51:00,
2014-01-19 18:53:00,47.5,23.8,29.94,North,0,0.0,0.0,39,0.00,,---,0.00,VWS V14.00,2014-01-20 02:53:00,
2014-01-19 18:54:00,47.5,23.8,29.94,North,0,0.0,0.0,39,0.00,,---,0.00,VWS V14.00,2014-01-20 02:54:00,
2014-01-19 18:55:00,47.3,23.6,29.94,North,0,0.0,0.0,39,0.00,,---,0.00,VWS V14.00,2014-01-20 02:55:00,
2014-01-19 18:56:00,47.3,23.6,29.94,North,0,0.0,0.0,39,0.00,,---,0.00,VWS V14.00,2014-01-20 02:56:00,
2014-01-19 19:00:00,47.1,23.5,29.94,North,0,0.0,0.0,39,0.00,,---,0.00,VWS V14.00,2014-01-20 03:00:00,
2014-01-19 19:01:00,47.3,23.6,29.94,North,0,0.0,0.0,39,0.00,,---,0.00,VWS V14.00,2014-01-20 03:01:00,
2014-01-19 19:02:00,47.5,23.8,29.94,North,0,0.0,0.0,39,0.00,,---,0.00,VWS V14.00,2014-01-20 03:02:00,
2014-01-19 19:05:00,47.7,24.5,29.94,North,0,0.0,0.0,40,0.00,,---,0.00,VWS V14.00,2014-01-20 03:05:00,
2014-01-19 19:06:00,47.7,24.5,29.94,North,0,0.0,0.0,40,0.00,,---,0.00,VWS V14.00,2014-01-20 03:06:00,
2014-01-19 19:08:00,47.5,24.4,29.94,North,0,0.0,0.0,40,0.00,,---,0.00,VWS V14.00,2014-01-20 03:08:00,
2014-01-19 19:09:00,47.1,24.6,29.94,North,0,0.0,0.0,41,0.00,,---,0.00,VWS V14.00,2014-01-20 03:09:00,
2014-01-19 19:10:00,46.9,23.9,29.94,North,0,0.0,0.0,40,0.00,,---,0.00,VWS V14.00,2014-01-20 03:10:00,
2014-01-19 19:13:00,46.8,24.3,29.94,North,0,0.0,0.0,41,0.00,,---,0.00,VWS V14.00,2014-01-20 03:13:00,
2014-01-19 19:14:00,46.8,24.3,29.94,North,0,0.0,0.0,41,0.00,,---,0.00,VWS V14.00,2014-01-20 03:14:00,
2014-01-19 19:16:00,46.6,24.2,29.94,North,0,0.0,0.0,41,0.00,,---,0.00,VWS V14.00,2014-01-20 03:16:00,
2014-01-19 19:17:00,46.6,24.2,29.94,North,0,0.0,0.0,41,0.00,,---,0.00,VWS V14.00,2014-01-20 03:17:00,
2014-01-19 19:18:00,46.6,24.2,29.94,North,0,0.0,0.0,41,0.00,,---,0.00,VWS V14.00,2014-01-20 03:18:00,
2014-01-19 19:19:00,46.4,24.0,29.94,North,0,0.0,0.0,41,0.00,,---,0.00,VWS V14.00,2014-01-20 03:19:00,
2014-01-19 19:21:00,46.2,25.0,29.94,North,0,0.0,0.0,43,0.00,,---,0.00,VWS V14.00,2014-01-20 03:21:00,
2014-01-19 19:23:00,46.0,25.4,29.94,North,0,0.0,0.0,44,0.00,,---,0.00,VWS V14.00,2014-01-20 03:23:00,
2014-01-19 19:24:00,45.9,25.7,29.94,North,0,0.0,0.0,45,0.00,,---,0.00,VWS V14.00,2014-01-20 03:24:00,
2014-01-19 19:25:00,45.9,25.7,29.94,North,0,0.0,0.0,45,0.00,,---,0.00,VWS V14.00,2014-01-20 03:25:00,
2014-01-19 19:26:00,45.7,25.6,29.94,North,0,0.0,0.0,45,0.00,,---,0.00,VWS V14.00,2014-01-20 03:26:00,
2014-01-19 19:28:00,45.5,24.9,29.97,North,0,0.0,0.0,44,0.00,,---,0.00,VWS V14.00,2014-01-20 03:28:00,
2014-01-19 19:30:00,45.3,24.2,29.97,North,0,0.0,0.0,43,0.00,,---,0.00,VWS V14.00,2014-01-20 03:30:00,
2014-01-19 19:32:00,45.1,23.4,29.97,North,0,0.0,0.0,42,0.00,,---,0.00,VWS V14.00,2014-01-20 03:32:00,
2014-01-19 19:33:00,45.0,23.8,29.97,North,0,0.0,0.0,43,0.00,,---,0.00,VWS V14.00,2014-01-20 03:33:00,
2014-01-19 19:37:00,44.6,24.0,29.97,North,0,0.0,0.0,44,0.00,,---,0.00,VWS V14.00,2014-01-20 03:37:00,
2014-01-19 19:39:00,44.4,23.9,29.97,North,0,0.0,0.0,44,0.00,,---,0.00,VWS V14.00,2014-01-20 03:39:00,
2014-01-19 19:41:00,44.2,23.7,29.97,North,0,0.0,0.0,44,0.00,,---,0.00,VWS V14.00,2014-01-20 03:41:00,
2014-01-19 19:43:00,44.1,23.6,29.97,North,0,0.0,0.0,44,0.00,,---,0.00,VWS V14.00,2014-01-20 03:43:00,
2014-01-19 19:44:00,44.1,23.6,29.97,North,0,0.0,0.0,44,0.00,,---,0.00,VWS V14.00,2014-01-20 03:44:00,
2014-01-19 19:45:00,44.1,23.6,29.97,North,0,0.0,0.0,44,0.00,,---,0.00,VWS V14.00,2014-01-20 03:45:00,
2014-01-19 19:48:00,43.7,23.8,29.97,North,0,0.0,0.0,45,0.00,,---,0.00,VWS V14.00,2014-01-20 03:48:00,
2014-01-19 19:49:00,43.7,23.8,29.97,North,0,0.0,0.0,45,0.00,,---,0.00,VWS V14.00,2014-01-20 03:49:00,
2014-01-19 19:50:00,43.5,23.1,29.97,North,0,0.0,0.0,44,0.00,,---,0.00,VWS V14.00,2014-01-20 03:50:00,
2014-01-19 19:51:00,43.5,23.6,29.97,North,0,0.0,0.0,45,0.00,,---,0.00,VWS V14.00,2014-01-20 03:51:00,
2014-01-19 19:54:00,43.3,22.9,29.97,North,0,0.0,0.0,44,0.00,,---,0.00,VWS V14.00,2014-01-20 03:54:00,
2014-01-19 19:57:00,43.2,23.3,29.97,North,0,0.0,0.0,45,0.00,,---,0.00,VWS V14.00,2014-01-20 03:57:00,
2014-01-19 19:58:00,43.0,23.1,29.97,North,0,0.0,0.0,45,0.00,,---,0.00,VWS V14.00,2014-01-20 03:58:00,
2014-01-19 19:59:00,43.0,23.6,29.97,North,0,0.0,0.0,46,0.00,,---,0.00,VWS V14.00,2014-01-20 03:59:00,
2014-01-19 20:04:00,42.6,23.3,29.97,North,0,0.0,0.0,46,0.00,,---,0.00,VWS V14.00,2014-01-20 04:04:00,
2014-01-19 20:05:00,42.6,23.3,29.97,North,0,0.0,0.0,46,0.00,,---,0.00,VWS V14.00,2014-01-20 04:05:00,
2014-01-19 20:06:00,42.6,23.3,29.97,North,0,0.0,0.0,46,0.00,,---,0.00,VWS V14.00,2014-01-20 04:06:00,
2014-01-19 20:07:00,42.4,23.1,29.97,North,0,0.0,0.0,46,0.00,,---,0.00,VWS V14.00,2014-01-20 04:07:00,
2014-01-19 20:09:00,42.4,23.1,29.97,North,0,0.0,0.0,46,0.00,,---,0.00,VWS V14.00,2014-01-20 04:09:00,
2014-01-19 20:11:00,42.3,23.5,29.97,North,0,0.0,0.0,47,0.00,,---,0.00,VWS V14.00,2014-01-20 04:11:00,
2014-01-19 20:13:00,42.1,23.3,29.97,North,0,0.0,0.0,47,0.00,,---,0.00,VWS V14.00,2014-01-20 04:13:00,
2014-01-19 20:14:00,42.1,23.8,29.97,North,0,0.0,0.0,48,0.00,,---,0.00,VWS V14.00,2014-01-20 04:14:00,
2014-01-19 20:15:00,42.1,23.8,29.97,North,0,0.0,0.0,48,0.00,,---,0.00,VWS V14.00,2014-01-20 04:15:00,
2014-01-19 20:16:00,41.9,23.2,29.97,North,0,0.0,0.0,47,0.00,,---,0.00,VWS V14.00,2014-01-20 04:16:00,
2014-01-19 20:18:00,41.7,23.0,29.97,North,0,0.0,0.0,47,0.00,,---,0.00,VWS V14.00,2014-01-20 04:18:00,
2014-01-19 20:20:00,41.7,23.5,29.97,North,0,0.0,0.0,48,0.00,,---,0.00,VWS V14.00,2014-01-20 04:20:00,
2014-01-19 20:21:00,41.5,23.8,29.97,North,0,0.0,0.0,49,0.00,,---,0.00,VWS V14.00,2014-01-20 04:21:00,
2014-01-19 20:24:00,41.4,23.6,29.97,North,0,0.0,0.0,49,0.00,,---,0.00,VWS V14.00,2014-01-20 04:24:00,
2014-01-19 20:25:00,41.2,23.5,29.97,North,0,0.0,0.0,49,0.00,,---,0.00,VWS V14.00,2014-01-20 04:25:00,
2014-01-19 20:27:00,41.2,23.5,29.97,North,0,0.0,0.0,49,0.00,,---,0.00,VWS V14.00,2014-01-20 04:27:00,
2014-01-19 20:28:00,41.2,23.5,29.97,North,0,0.0,0.0,49,0.00,,---,0.00,VWS V14.00,2014-01-20 04:28:00,
2014-01-19 20:29:00,41.0,23.3,29.97,North,0,0.0,0.0,49,0.00,,---,0.00,VWS V14.00,2014-01-20 04:29:00,
2014-01-19 20:30:00,41.0,23.3,29.97,North,0,0.0,0.0,49,0.00,,---,0.00,VWS V14.00,2014-01-20 04:30:00,
2014-01-19 20:32:00,41.0,23.3,29.97,North,0,0.0,0.0,49,0.00,,---,0.00,VWS V14.00,2014-01-20 04:32:00,
2014-01-19 20:34:00,40.6,23.0,29.97,North,0,0.0,0.0,49,0.00,,---,0.00,VWS V14.00,2014-01-20 04:34:00,
2014-01-19 20:35:00,40.6,23.0,29.97,North,0,0.0,0.0,49,0.00,,---,0.00,VWS V14.00,2014-01-20 04:35:00,
2014-01-19 20:36:00,40.6,23.0,29.97,North,0,0.0,0.0,49,0.00,,---,0.00,VWS V14.00,2014-01-20 04:36:00,
2014-01-19 20:37:00,40.6,23.0,29.97,North,0,0.0,0.0,49,0.00,,---,0.00,VWS V14.00,2014-01-20 04:37:00,
2014-01-19 20:41:00,40.3,22.7,29.97,North,0,0.0,0.0,49,0.00,,---,0.00,VWS V14.00,2014-01-20 04:41:00,
2014-01-19 20:42:00,40.3,22.7,29.97,North,0,0.0,0.0,49,0.00,,---,0.00,VWS V14.00,2014-01-20 04:42:00,
2014-01-19 20:43:00,40.1,22.5,29.97,North,0,0.0,0.0,49,0.00,,---,0.00,VWS V14.00,2014-01-20 04:43:00,
2014-01-19 20:44:00,40.1,22.5,29.97,North,0,0.0,0.0,49,0.00,,---,0.00,VWS V14.00,2014-01-20 04:44:00,
2014-01-19 20:47:00,39.9,22.8,29.97,North,0,0.0,0.0,50,0.00,,---,0.00,VWS V14.00,2014-01-20 04:47:00,
2014-01-19 20:48:00,39.9,22.8,29.97,North,0,0.0,0.0,50,0.00,,---,0.00,VWS V14.00,2014-01-20 04:48:00,
2014-01-19 20:50:00,39.7,22.6,29.97,North,0,0.0,0.0,50,0.00,,---,0.00,VWS V14.00,2014-01-20 04:50:00,
2014-01-19 20:52:00,39.7,22.6,29.97,North,0,0.0,0.0,50,0.00,,---,0.00,VWS V14.00,2014-01-20 04:52:00,
2014-01-19 20:53:00,39.6,22.5,29.97,North,0,0.0,0.0,50,0.00,,---,0.00,VWS V14.00,2014-01-20 04:53:00,
2014-01-19 20:54:00,39.6,22.5,29.97,North,0,0.0,0.0,50,0.00,,---,0.00,VWS V14.00,2014-01-20 04:54:00,
2014-01-19 20:56:00,39.4,22.8,29.97,North,0,0.0,0.0,51,0.00,,---,0.00,VWS V14.00,2014-01-20 04:56:00,
2014-01-19 20:58:00,39.4,22.8,30.00,North,0,0.0,0.0,51,0.00,,---,0.00,VWS V14.00,2014-01-20 04:58:00,
2014-01-19 20:59:00,39.4,22.3,30.00,North,0,0.0,0.0,50,0.00,,---,0.00,VWS V14.00,2014-01-20 04:59:00,
2014-01-19 21:00:00,39.2,22.6,30.00,North,0,0.0,0.0,51,0.00,,---,0.00,VWS V14.00,2014-01-20 05:00:00,
2014-01-19 21:01:00,39.2,22.6,30.00,North,0,0.0,0.0,51,0.00,,---,0.00,VWS V14.00,2014-01-20 05:01:00,
2014-01-19 21:03:00,39.0,22.9,30.00,North,0,0.0,0.0,52,0.00,,---,0.00,VWS V14.00,2014-01-20 05:03:00,
2014-01-19 21:04:00,39.0,22.9,30.00,North,0,0.0,0.0,52,0.00,,---,0.00,VWS V14.00,2014-01-20 05:04:00,
2014-01-19 21:05:00,39.0,22.9,30.00,North,0,0.0,0.0,52,0.00,,---,0.00,VWS V14.00,2014-01-20 05:05:00,
2014-01-19 21:06:00,39.0,22.9,30.00,North,0,0.0,0.0,52,0.00,,---,0.00,VWS V14.00,2014-01-20 05:06:00,
2014-01-19 21:07:00,39.0,22.9,30.00,North,0,0.0,0.0,52,0.00,,---,0.00,VWS V14.00,2014-01-20 05:07:00,
2014-01-19 21:09:00,38.8,23.2,30.00,North,0,0.0,0.0,53,0.00,,---,0.00,VWS V14.00,2014-01-20 05:09:00,
2014-01-19 21:10:00,38.8,23.2,30.00,North,0,0.0,0.0,53,0.00,,---,0.00,VWS V14.00,2014-01-20 05:10:00,
2014-01-19 21:11:00,38.7,23.0,30.00,North,0,0.0,0.0,53,0.00,,---,0.00,VWS V14.00,2014-01-20 05:11:00,
2014-01-19 21:12:00,38.7,23.0,30.00,North,0,0.0,0.0,53,0.00,,---,0.00,VWS V14.00,2014-01-20 05:12:00,
2014-01-19 21:14:00,38.7,22.6,30.00,North,0,0.0,0.0,52,0.00,,---,0.00,VWS V14.00,2014-01-20 05:14:00,
2014-01-19 21:15:00,38.7,22.6,30.00,North,0,0.0,0.0,52,0.00,,---,0.00,VWS V14.00,2014-01-20 05:15:00,
2014-01-19 21:18:00,38.5,22.4,30.00,North,0,0.0,0.0,52,0.00,,---,0.00,VWS V14.00,2014-01-20 05:18:00,
2014-01-19 21:19:00,38.5,22.4,30.00,North,0,0.0,0.0,52,0.00,,---,0.00,VWS V14.00,2014-01-20 05:19:00,
2014-01-19 21:20:00,38.5,22.4,30.00,North,0,0.0,0.0,52,0.00,,---,0.00,VWS V14.00,2014-01-20 05:20:00,
2014-01-19 21:21:00,38.5,22.4,30.00,North,0,0.0,0.0,52,0.00,,---,0.00,VWS V14.00,2014-01-20 05:21:00,
2014-01-19 21:25:00,38.1,22.5,30.00,North,0,0.0,0.0,53,0.00,,---,0.00,VWS V14.00,2014-01-20 05:25:00,
2014-01-19 21:26:00,38.1,22.5,30.00,North,0,0.0,0.0,53,0.00,,---,0.00,VWS V14.00,2014-01-20 05:26:00,
2014-01-19 21:27:00,38.1,23.0,30.00,North,0,0.0,0.0,54,0.00,,---,0.00,VWS V14.00,2014-01-20 05:27:00,
2014-01-19 21:28:00,38.1,23.0,30.00,North,0,0.0,0.0,54,0.00,,---,0.00,VWS V14.00,2014-01-20 05:28:00,
2014-01-19 21:29:00,38.1,23.0,30.00,North,0,0.0,0.0,54,0.00,,---,0.00,VWS V14.00,2014-01-20 05:29:00,
2014-01-19 21:34:00,37.9,23.2,30.00,North,0,0.0,0.0,55,0.00,,---,0.00,VWS V14.00,2014-01-20 05:34:00,
2014-01-19 21:35:00,37.8,23.1,30.00,North,0,0.0,0.0,55,0.00,,---,0.00,VWS V14.00,2014-01-20 05:35:00,
2014-01-19 21:37:00,37.8,23.5,30.00,North,0,0.0,0.0,56,0.00,,---,0.00,VWS V14.00,2014-01-20 05:37:00,
2014-01-19 21:38:00,37.8,23.5,30.00,North,0,0.0,0.0,56,0.00,,---,0.00,VWS V14.00,2014-01-20 05:38:00,
2014-01-19 21:39:00,37.8,23.5,30.00,North,0,0.0,0.0,56,0.00,,---,0.00,VWS V14.00,2014-01-20 05:39:00,
2014-01-19 21:42:00,37.6,23.3,30.00,North,0,0.0,0.0,56,0.00,,---,0.00,VWS V14.00,2014-01-20 05:42:00,
2014-01-19 21:43:00,37.4,23.1,30.00,North,0,0.0,0.0,56,0.00,,---,0.00,VWS V14.00,2014-01-20 05:43:00,
2014-01-19 21:45:00,37.4,23.1,30.00,North,0,0.0,0.0,56,0.00,,---,0.00,VWS V14.00,2014-01-20 05:45:00,
2014-01-19 21:48:00,37.4,22.7,30.00,North,0,0.0,0.0,55,0.00,,---,0.00,VWS V14.00,2014-01-20 05:48:00,
2014-01-19 21:49:00,37.4,22.7,30.00,North,0,0.0,0.0,55,0.00,,---,0.00,VWS V14.00,2014-01-20 05:49:00,
2014-01-19 21:50:00,37.4,22.7,30.00,North,0,0.0,0.0,55,0.00,,---,0.00,VWS V14.00,2014-01-20 05:50:00,
2014-01-19 21:51:00,37.4,22.7,30.00,North,0,0.0,0.0,55,0.00,,---,0.00,VWS V14.00,2014-01-20 05:51:00,
2014-01-19 21:52:00,37.4,22.7,30.00,North,0,0.0,0.0,55,0.00,,---,0.00,VWS V14.00,2014-01-20 05:52:00,
2014-01-19 21:53:00,37.4,22.7,30.00,North,0,0.0,0.0,55,0.00,,---,0.00,VWS V14.00,2014-01-20 05:53:00,
2014-01-19 21:57:00,37.0,23.2,30.00,North,0,0.0,0.0,57,0.00,,---,0.00,VWS V14.00,2014-01-20 05:57:00,
2014-01-19 21:58:00,37.0,23.2,30.03,North,0,0.0,0.0,57,0.00,,---,0.00,VWS V14.00,2014-01-20 05:58:00,
2014-01-19 21:59:00,37.0,23.2,30.03,North,0,0.0,0.0,57,0.00,,---,0.00,VWS V14.00,2014-01-20 05:59:00,
2014-01-19 22:01:00,36.9,23.1,30.03,North,0,0.0,0.0,57,0.00,,---,0.00,VWS V14.00,2014-01-20 06:01:00,
2014-01-19 22:02:00,36.9,23.1,30.03,North,0,0.0,0.0,57,0.00,,---,0.00,VWS V14.00,2014-01-20 06:02:00,
2014-01-19 22:04:00,36.9,23.5,30.03,North,0,0.0,0.0,58,0.00,,---,0.00,VWS V14.00,2014-01-20 06:04:00,
2014-01-19 22:07:00,36.7,23.7,30.03,North,0,0.0,0.0,59,0.00,,---,0.00,VWS V14.00,2014-01-20 06:07:00,
2014-01-19 22:08:00,36.7,23.7,30.03,North,0,0.0,0.0,59,0.00,,---,0.00,VWS V14.00,2014-01-20 06:08:00,
2014-01-19 22:09:00,36.7,23.7,30.03,North,0,0.0,0.0,59,0.00,,---,0.00,VWS V14.00,2014-01-20 06:09:00,
2014-01-19 22:11:00,36.7,23.7,30.03,North,0,0.0,0.0,59,0.00,,---,0.00,VWS V14.00,2014-01-20 06:11:00,
2014-01-19 22:12:00,36.7,23.7,30.03,North,0,0.0,0.0,59,0.00,,---,0.00,VWS V14.00,2014-01-20 06:12:00,
2014-01-19 22:13:00,36.5,23.5,30.03,North,0,0.0,0.0,59,0.00,,---,0.00,VWS V14.00,2014-01-20 06:13:00,
2014-01-19 22:16:00,36.5,23.1,30.03,North,0,0.0,0.0,58,0.00,,---,0.00,VWS V14.00,2014-01-20 06:16:00,
2014-01-19 22:18:00,36.5,23.5,30.03,North,0,0.0,0.0,59,0.00,,---,0.00,VWS V14.00,2014-01-20 06:18:00,
2014-01-19 22:19:00,36.5,23.5,30.03,North,0,0.0,0.0,59,0.00,,---,0.00,VWS V14.00,2014-01-20 06:19:00,
2014-01-19 22:21:00,36.3,23.4,30.03,North,0,0.0,0.0,59,0.00,,---,0.00,VWS V14.00,2014-01-20 06:21:00,
2014-01-19 22:23:00,36.3,23.4,30.03,North,0,0.0,0.0,59,0.00,,---,0.00,VWS V14.00,2014-01-20 06:23:00,
2014-01-19 22:24:00,36.3,23.4,30.03,North,0,0.0,0.0,59,0.00,,---,0.00,VWS V14.00,2014-01-20 06:24:00,
2014-01-19 22:25:00,36.3,23.4,30.03,North,0,0.0,0.0,59,0.00,,---,0.00,VWS V14.00,2014-01-20 06:25:00,
2014-01-19 22:26:00,36.1,23.2,30.03,North,0,0.0,0.0,59,0.00,,---,0.00,VWS V14.00,2014-01-20 06:26:00,
2014-01-19 22:27:00,36.1,23.2,30.03,North,0,0.0,0.0,59,0.00,,---,0.00,VWS V14.00,2014-01-20 06:27:00,
2014-01-19 22:31:00,36.3,23.8,30.03,North,0,0.0,0.0,60,0.00,,---,0.00,VWS V14.00,2014-01-20 06:31:00,
2014-01-19 22:32:00,36.3,23.8,30.03,North,0,0.0,0.0,60,0.00,,---,0.00,VWS V14.00,2014-01-20 06:32:00,
2014-01-19 22:33:00,36.1,24.0,30.03,North,0,0.0,0.0,61,0.00,,---,0.00,VWS V14.00,2014-01-20 06:33:00,
2014-01-19 22:34:00,36.1,24.0,30.03,North,0,0.0,0.0,61,0.00,,---,0.00,VWS V14.00,2014-01-20 06:34:00,
2014-01-19 22:35:00,36.1,24.4,30.03,North,0,0.0,0.0,62,0.00,,---,0.00,VWS V14.00,2014-01-20 06:35:00,
2014-01-19 22:36:00,36.1,24.4,30.03,North,0,0.0,0.0,62,0.00,,---,0.00,VWS V14.00,2014-01-20 06:36:00,
2014-01-19 22:38:00,36.1,24.0,30.03,North,0,0.0,0.0,61,0.00,,---,0.00,VWS V14.00,2014-01-20 06:38:00,
2014-01-19 22:39:00,36.0,24.2,30.03,North,0,0.0,0.0,62,0.00,,---,0.00,VWS V14.00,2014-01-20 06:39:00,
2014-01-19 22:42:00,36.0,24.2,30.03,North,0,0.0,0.0,62,0.00,,---,0.00,VWS V14.00,2014-01-20 06:42:00,
2014-01-19 22:43:00,36.0,24.2,30.03,North,0,0.0,0.0,62,0.00,,---,0.00,VWS V14.00,2014-01-20 06:43:00,
2014-01-19 22:45:00,36.0,23.8,30.03,North,0,0.0,0.0,61,0.00,,---,0.00,VWS V14.00,2014-01-20 06:45:00,
2014-01-19 22:47:00,36.0,24.2,30.03,North,0,0.0,0.0,62,0.00,,---,0.00,VWS V14.00,2014-01-20 06:47:00,
2014-01-19 22:49:00,36.0,24.6,30.03,North,0,0.0,0.0,63,0.00,,---,0.00,VWS V14.00,2014-01-20 06:49:00,
2014-01-19 22:50:00,36.0,24.6,30.03,North,0,0.0,0.0,63,0.00,,---,0.00,VWS V14.00,2014-01-20 06:50:00,
2014-01-19 22:51:00,36.0,25.0,30.03,North,0,0.0,0.0,64,0.00,,---,0.00,VWS V14.00,2014-01-20 06:51:00,
2014-01-19 22:53:00,35.8,24.8,30.03,North,0,0.0,0.0,64,0.00,,---,0.00,VWS V14.00,2014-01-20 06:53:00,
2014-01-19 22:54:00,35.8,25.2,30.03,North,0,0.0,0.0,65,0.00,,---,0.00,VWS V14.00,2014-01-20 06:54:00,
2014-01-19 22:56:00,35.8,25.2,30.03,North,0,0.0,0.0,65,0.00,,---,0.00,VWS V14.00,2014-01-20 06:56:00,
2014-01-19 22:57:00,35.8,25.2,30.03,North,0,0.0,0.0,65,0.00,,---,0.00,VWS V14.00,2014-01-20 06:57:00,
2014-01-19 22:58:00,35.8,25.2,30.03,North,0,0.0,0.0,65,0.00,,---,0.00,VWS V14.00,2014-01-20 06:58:00,
2014-01-19 22:59:00,35.8,25.2,30.03,North,0,0.0,0.0,65,0.00,,---,0.00,VWS V14.00,2014-01-20 06:59:00,
2014-01-19 23:01:00,35.6,25.4,30.03,North,0,0.0,0.0,66,0.00,,---,0.00,VWS V14.00,2014-01-20 07:01:00,
2014-01-19 23:03:00,35.6,25.0,30.03,North,0,0.0,0.0,65,0.00,,---,0.00,VWS V14.00,2014-01-20 07:03:00,
2014-01-19 23:06:00,35.6,25.0,30.03,North,0,0.0,0.0,65,0.00,,---,0.00,VWS V14.00,2014-01-20 07:06:00,
2014-01-19 23:07:00,35.4,24.8,30.03,North,0,0.0,0.0,65,0.00,,---,0.00,VWS V14.00,2014-01-20 07:07:00,
2014-01-19 23:10:00,35.4,24.5,30.03,North,0,0.0,0.0,64,0.00,,---,0.00,VWS V14.00,2014-01-20 07:10:00,
2014-01-19 23:11:00,35.4,24.5,30.03,North,0,0.0,0.0,64,0.00,,---,0.00,VWS V14.00,2014-01-20 07:11:00,
2014-01-19 23:13:00,35.4,24.5,30.03,North,0,0.0,0.0,64,0.00,,---,0.00,VWS V14.00,2014-01-20 07:13:00,
2014-01-19 23:14:00,35.2,24.3,30.03,North,0,0.0,0.0,64,0.00,,---,0.00,VWS V14.00,2014-01-20 07:14:00,
2014-01-19 23:15:00,35.2,24.3,30.03,North,0,0.0,0.0,64,0.00,,---,0.00,VWS V14.00,2014-01-20 07:15:00,
2014-01-19 23:17:00,35.2,23.9,30.03,North,0,0.0,0.0,63,0.00,,---,0.00,VWS V14.00,2014-01-20 07:17:00,
2014-01-19 23:18:00,35.2,23.9,30.03,North,0,0.0,0.0,63,0.00,,---,0.00,VWS V14.00,2014-01-20 07:18:00,
2014-01-19 23:20:00,35.1,23.8,30.03,North,0,0.0,0.0,63,0.00,,---,0.00,VWS V14.00,2014-01-20 07:20:00,
2014-01-19 23:22:00,35.1,23.4,30.03,North,0,0.0,0.0,62,0.00,,---,0.00,VWS V14.00,2014-01-20 07:22:00,
2014-01-19 23:24:00,35.1,23.4,30.03,North,0,0.0,0.0,62,0.00,,---,0.00,VWS V14.00,2014-01-20 07:24:00,
2014-01-19 23:25:00,34.9,23.6,30.03,North,0,0.0,0.0,63,0.00,,---,0.00,VWS V14.00,2014-01-20 07:25:00,
2014-01-19 23:26:00,34.9,23.6,30.03,North,0,0.0,0.0,63,0.00,,---,0.00,VWS V14.00,2014-01-20 07:26:00,
2014-01-19 23:27:00,34.9,23.6,30.03,North,0,0.0,0.0,63,0.00,,---,0.00,VWS V14.00,2014-01-20 07:27:00,
2014-01-19 23:29:00,34.9,23.6,30.03,North,0,0.0,0.0,63,0.00,,---,0.00,VWS V14.00,2014-01-20 07:29:00,
2014-01-19 23:30:00,34.9,23.6,30.03,North,0,0.0,0.0,63,0.00,,---,0.00,VWS V14.00,2014-01-20 07:30:00,
2014-01-19 23:34:00,34.9,23.2,30.03,North,0,0.0,0.0,62,0.00,,---,0.00,VWS V14.00,2014-01-20 07:34:00,
2014-01-19 23:36:00,34.7,23.0,30.03,North,0,0.0,0.0,62,0.00,,---,0.00,VWS V14.00,2014-01-20 07:36:00,
2014-01-19 23:39:00,34.7,23.0,30.03,North,0,0.0,0.0,62,0.00,,---,0.00,VWS V14.00,2014-01-20 07:39:00,
2014-01-19 23:41:00,34.5,22.9,30.03,North,0,0.0,0.0,62,0.00,,---,0.00,VWS V14.00,2014-01-20 07:41:00,
2014-01-19 23:42:00,34.5,22.9,30.03,North,0,0.0,0.0,62,0.00,,---,0.00,VWS V14.00,2014-01-20 07:42:00,
2014-01-19 23:43:00,34.5,22.5,30.03,North,0,0.0,0.0,61,0.00,,---,0.00,VWS V14.00,2014-01-20 07:43:00,
2014-01-19 23:44:00,34.5,22.5,30.03,North,0,0.0,0.0,61,0.00,,---,0.00,VWS V14.00,2014-01-20 07:44:00,
2014-01-19 23:45:00,34.5,22.5,30.03,North,0,0.0,0.0,61,0.00,,---,0.00,VWS V14.00,2014-01-20 07:45:00,
2014-01-19 23:48:00,34.5,22.5,30.03,North,0,0.0,0.0,61,0.00,,---,0.00,VWS V14.00,2014-01-20 07:48:00,
2014-01-19 23:49:00,34.5,22.5,30.03,North,0,0.0,0.0,61,0.00,,---,0.00,VWS V14.00,2014-01-20 07:49:00,
2014-01-19 23:51:00,34.5,22.5,30.03,North,0,0.0,0.0,61,0.00,,---,0.00,VWS V14.00,2014-01-20 07:51:00,
2014-01-19 23:52:00,34.5,22.5,30.03,North,0,0.0,0.0,61,0.00,,---,0.00,VWS V14.00,2014-01-20 07:52:00,
2014-01-19 23:56:00,34.3,22.7,30.03,North,0,0.0,0.0,62,0.00,,---,0.00,VWS V14.00,2014-01-20 07:56:00,
2014-01-19 23:59:00,34.2,22.5,30.03,North,0,0.0,0.0,62,0.00,,---,0.00,VWS V14.00,2014-01-20 07:59:00,